Wetterdaten: Sonntag, 30.12.2018
Datum Zeit Temp. Aussen Temp. o. S. +5cm Feuchte Auss Luftdruck Regen Sonnenschein Regendauer Solar Windben Empfang
30.12.2018 00:00 7,9 C 7,2 C 6,7 C 87 % 1026,4 hPa 0,0 l/m 0 min 0 min 0 W/m 25,7 km/h (4 Bft) 100,00 %
30.12.2018 00:02 7,9 C 7,2 C 6,7 C 87 % 1026,4 hPa 0,0 l/m 0 min 0 min 0 W/m 22,5 km/h (4 Bft) 97,30 %
30.12.2018 00:04 7,9 C 7,2 C 6,7 C 87 % 1026,4 hPa 0,0 l/m 0 min 0 min 0 W/m 22,5 km/h (4 Bft) 97,83 %
30.12.2018 00:08 7,9 C 7,2 C 6,7 C 87 % 1026,4 hPa 0,0 l/m 0 min 0 min 0 W/m 16,1 km/h (3 Bft) 98,94 %
30.12.2018 00:10 7,9 C 7,2 C 6,7 C 86 % 1026,5 hPa 0,0 l/m 0 min 0 min 0 W/m 35,4 km/h (5 Bft) 100,00 %
30.12.2018 00:12 7,9 C 7,2 C 6,7 C 86 % 1026,4 hPa 0,0 l/m 0 min 0 min 0 W/m 19,3 km/h (3 Bft) 100,00 %
30.12.2018 00:14 7,9 C 7,2 C 6,7 C 86 % 1026,5 hPa 0,0 l/m 0 min 0 min 0 W/m 19,3 km/h (3 Bft) 100,00 %
30.12.2018 00:16 7,9 C 7,2 C 6,7 C 86 % 1026,5 hPa 0,0 l/m 0 min 0 min 0 W/m 16,1 km/h (3 Bft) 97,83 %
30.12.2018 00:18 7,8 C 7,2 C 6,7 C 86 % 1026,5 hPa 0,0 l/m 0 min 0 min 0 W/m 19,3 km/h (3 Bft) 100,00 %
30.12.2018 00:20 7,8 C 7,2 C 6,7 C 86 % 1026,5 hPa 0,0 l/m 0 min 0 min 0 W/m 22,5 km/h (4 Bft) 100,00 %
30.12.2018 00:22 7,8 C 7,2 C 6,7 C 86 % 1026,6 hPa 0,0 l/m 0 min 0 min 0 W/m 25,7 km/h (4 Bft) 100,00 %
30.12.2018 00:24 7,8 C 7,2 C 6,7 C 86 % 1026,5 hPa 0,0 l/m 0 min 0 min 0 W/m 16,1 km/h (3 Bft) 100,00 %
30.12.2018 00:26 7,8 C 7,2 C 6,7 C 86 % 1026,6 hPa 0,0 l/m 0 min 0 min 0 W/m 19,3 km/h (3 Bft) 100,00 %
30.12.2018 00:28 7,8 C 7,2 C 6,7 C 86 % 1026,5 hPa 0,0 l/m 0 min 0 min 0 W/m 19,3 km/h (3 Bft) 95,65 %
30.12.2018 00:30 7,8 C 7,2 C 6,7 C 86 % 1026,5 hPa 0,0 l/m 0 min 0 min 0 W/m 19,3 km/h (3 Bft) 97,87 %
30.12.2018 00:32 7,8 C 7,2 C 6,7 C 86 % 1026,5 hPa 0,0 l/m 0 min 0 min 0 W/m 22,5 km/h (4 Bft) 97,87 %
30.12.2018 00:34 7,8 C 7,2 C 6,7 C 86 % 1026,5 hPa 0,0 l/m 0 min 0 min 0 W/m 16,1 km/h (3 Bft) 97,87 %
30.12.2018 00:36 7,8 C 7,2 C 6,7 C 87 % 1026,6 hPa 0,0 l/m 0 min 0 min 0 W/m 19,3 km/h (3 Bft) 97,87 %
30.12.2018 00:38 7,8 C 7,2 C 6,7 C 87 % 1026,6 hPa 0,0 l/m 0 min 0 min 0 W/m 16,1 km/h (3 Bft) 95,74 %
30.12.2018 00:40 7,8 C 7,2 C 6,7 C 87 % 1026,6 hPa 0,0 l/m 0 min 0 min 0 W/m 16,1 km/h (3 Bft) 95,65 %
30.12.2018 00:42 7,8 C 7,2 C 6,7 C 87 % 1026,5 hPa 0,0 l/m 0 min 0 min 0 W/m 19,3 km/h (3 Bft) 93,62 %
30.12.2018 00:44 7,8 C 7,2 C 6,7 C 87 % 1026,6 hPa 0,0 l/m 0 min 0 min 0 W/m 16,1 km/h (3 Bft) 93,62 %
30.12.2018 00:46 7,7 C 7,2 C 6,1 C 87 % 1026,7 hPa 0,0 l/m 0 min 0 min 0 W/m 19,3 km/h (3 Bft) 95,74 %
30.12.2018 00:48 7,7 C 7,2 C 6,7 C 87 % 1026,7 hPa 0,0 l/m 0 min 0 min 0 W/m 19,3 km/h (3 Bft) 93,62 %
30.12.2018 00:50 7,7 C 7,2 C 6,7 C 87 % 1026,7 hPa 0,0 l/m 0 min 0 min 0 W/m 16,1 km/h (3 Bft) 91,49 %
30.12.2018 00:52 7,7 C 7,2 C 6,7 C 87 % 1026,8 hPa 0,0 l/m 0 min 0 min 0 W/m 22,5 km/h (4 Bft) 93,48 %
30.12.2018 00:54 7,7 C 7,2 C 6,7 C 87 % 1026,8 hPa 0,0 l/m 0 min 0 min 0 W/m 22,5 km/h (4 Bft) 93,62 %
30.12.2018 00:56 7,7 C 7,2 C 6,1 C 87 % 1026,9 hPa 0,0 l/m 0 min 0 min 0 W/m 16,1 km/h (3 Bft) 91,49 %
30.12.2018 00:58 7,7 C 7,2 C 6,7 C 87 % 1026,9 hPa 0,0 l/m 0 min 0 min 0 W/m 22,5 km/h (4 Bft) 93,62 %
30.12.2018 01:00 7,7 C 7,2 C 6,7 C 88 % 1027,1 hPa 0,0 l/m 0 min 0 min 0 W/m 25,7 km/h (4 Bft) 93,62 %
30.12.2018 01:02 7,7 C 7,2 C 6,7 C 88 % 1027,1 hPa 0,0 l/m 0 min 0 min 0 W/m 22,5 km/h (4 Bft) 91,30 %
30.12.2018 01:04 7,7 C 7,2 C 6,7 C 87 % 1027,0 hPa 0,0 l/m 0 min 0 min 0 W/m 22,5 km/h (4 Bft) 93,62 %
30.12.2018 01:06 7,7 C 7,2 C 6,7 C 87 % 1027,0 hPa 0,0 l/m 0 min 0 min 0 W/m 25,7 km/h (4 Bft) 89,36 %
30.12.2018 01:08 7,7 C 7,2 C 6,7 C 87 % 1027,0 hPa 0,0 l/m 0 min 0 min 0 W/m 22,5 km/h (4 Bft) 93,62 %
30.12.2018 01:10 7,7 C 7,2 C 6,7 C 87 % 1027,1 hPa 0,0 l/m 0 min 0 min 0 W/m 25,7 km/h (4 Bft) 93,62 %
30.12.2018 01:12 7,7 C 7,2 C 6,1 C 87 % 1027,1 hPa 0,0 l/m 0 min 0 min 0 W/m 16,1 km/h (3 Bft) 93,62 %
30.12.2018 01:14 7,7 C 7,2 C 6,7 C 88 % 1027,2 hPa 0,0 l/m 0 min 0 min 0 W/m 19,3 km/h (3 Bft) 89,13 %
30.12.2018 01:16 7,7 C 7,2 C 6,7 C 88 % 1027,2 hPa 0,0 l/m 0 min 0 min 0 W/m 19,3 km/h (3 Bft) 93,62 %
30.12.2018 01:18 7,7 C 7,2 C 6,7 C 88 % 1027,2 hPa 0,0 l/m 0 min 0 min 0 W/m 22,5 km/h (4 Bft) 93,62 %
30.12.2018 01:20 7,7 C 7,2 C 6,7 C 88 % 1027,3 hPa 0,0 l/m 0 min 0 min 0 W/m 19,3 km/h (3 Bft) 97,87 %
30.12.2018 01:22 7,7 C 7,2 C 6,7 C 88 % 1027,2 hPa 0,0 l/m 0 min 0 min 0 W/m 22,5 km/h (4 Bft) 93,62 %
30.12.2018 01:24 7,7 C 7,2 C 6,7 C 88 % 1027,4 hPa 0,0 l/m 0 min 0 min 0 W/m 19,3 km/h (3 Bft) 93,62 %
30.12.2018 01:26 7,7 C 7,2 C 6,7 C 88 % 1027,2 hPa 0,0 l/m 0 min 0 min 0 W/m 25,7 km/h (4 Bft) 95,65 %
30.12.2018 01:28 7,7 C 7,2 C 6,7 C 88 % 1027,2 hPa 0,0 l/m 0 min 0 min 0 W/m 19,3 km/h (3 Bft) 93,62 %
30.12.2018 01:30 7,7 C 7,2 C 6,7 C 88 % 1027,3 hPa 0,0 l/m 0 min 0 min 0 W/m 16,1 km/h (3 Bft) 95,74 %
30.12.2018 01:32 7,7 C 7,2 C 6,7 C 88 % 1027,3 hPa 0,0 l/m 0 min 0 min 0 W/m 38,6 km/h (5 Bft) 95,74 %
30.12.2018 01:34 7,7 C 7,2 C 6,7 C 88 % 1027,4 hPa 0,0 l/m 0 min 0 min 0 W/m 25,7 km/h (4 Bft) 100,00 %
30.12.2018 01:36 7,7 C 7,2 C 6,7 C 88 % 1027,5 hPa 0,0 l/m 0 min 0 min 0 W/m 22,5 km/h (4 Bft) 97,87 %
30.12.2018 01:38 7,7 C 7,2 C 6,7 C 88 % 1027,5 hPa 0,0 l/m 0 min 0 min 0 W/m 22,5 km/h (4 Bft) 100,00 %
30.12.2018 01:40 7,7 C 7,2 C 6,7 C 88 % 1027,5 hPa 0,0 l/m 0 min 0 min 0 W/m 25,7 km/h (4 Bft) 95,74 %
30.12.2018 01:42 7,7 C 7,2 C 6,7 C 88 % 1027,7 hPa 0,0 l/m 0 min 0 min 0 W/m 25,7 km/h (4 Bft) 100,00 %
30.12.2018 01:44 7,7 C 7,2 C 6,7 C 88 % 1027,7 hPa 0,0 l/m 0 min 0 min 0 W/m 35,4 km/h (5 Bft) 97,87 %
30.12.2018 01:46 7,8 C 7,2 C 6,7 C 88 % 1027,6 hPa 0,0 l/m 0 min 0 min 0 W/m 29,0 km/h (5 Bft) 100,00 %
30.12.2018 01:48 7,7 C 7,2 C 6,7 C 88 % 1027,8 hPa 0,0 l/m 0 min 0 min 0 W/m 19,3 km/h (3 Bft) 100,00 %
30.12.2018 01:50 7,8 C 7,2 C 6,7 C 88 % 1027,7 hPa 0,0 l/m 0 min 0 min 0 W/m 19,3 km/h (3 Bft) 97,83 %
30.12.2018 01:52 7,8 C 7,2 C 6,7 C 88 % 1027,9 hPa 0,0 l/m 0 min 0 min 0 W/m 12,9 km/h (3 Bft) 100,00 %
30.12.2018 01:54 7,8 C 7,2 C 6,7 C 88 % 1027,9 hPa 0,0 l/m 0 min 0 min 0 W/m 16,1 km/h (3 Bft) 97,87 %
30.12.2018 01:56 7,8 C 7,2 C 6,1 C 88 % 1027,8 hPa 0,0 l/m 0 min 0 min 0 W/m 9,7 km/h (2 Bft) 97,87 %
30.12.2018 01:58 7,7 C 7,2 C 6,7 C 88 % 1027,9 hPa 0,0 l/m 0 min 0 min 0 W/m 16,1 km/h (3 Bft) 97,87 %
30.12.2018 02:00 7,7 C 7,2 C 6,7 C 88 % 1028,0 hPa 0,0 l/m 0 min 0 min 0 W/m 22,5 km/h (4 Bft) 100,00 %
30.12.2018 02:02 7,7 C 7,2 C 6,7 C 88 % 1028,1 hPa 0,0 l/m 0 min 0 min 0 W/m 22,5 km/h (4 Bft) 100,00 %
30.12.2018 02:04 7,7 C 7,2 C 6,7 C 88 % 1028,0 hPa 0,0 l/m 0 min 0 min 0 W/m 25,7 km/h (4 Bft) 100,00 %
30.12.2018 02:06 7,7 C 7,2 C 6,1 C 88 % 1028,1 hPa 0,0 l/m 0 min 0 min 0 W/m 19,3 km/h (3 Bft) 100,00 %
30.12.2018 02:08 7,7 C 7,2 C 6,1 C 88 % 1028,0 hPa 0,0 l/m 0 min 0 min 0 W/m 19,3 km/h (3 Bft) 100,00 %
30.12.2018 02:10 7,7 C 7,2 C 6,1 C 88 % 1028,0 hPa 0,0 l/m 0 min 0 min 0 W/m 19,3 km/h (3 Bft) 97,87 %
30.12.2018 02:12 7,7 C 7,2 C 6,1 C 88 % 1028,0 hPa 0,0 l/m 0 min 2 min 0 W/m 19,3 km/h (3 Bft) 100,00 %
30.12.2018 02:14 7,7 C 7,2 C 6,1 C 88 % 1028,0 hPa 0,0 l/m 0 min 0 min 0 W/m 19,3 km/h (3 Bft) 100,00 %
30.12.2018 02:16 7,7 C 7,2 C 6,1 C 88 % 1028,1 hPa 0,0 l/m 0 min 0 min 0 W/m 16,1 km/h (3 Bft) 100,00 %
30.12.2018 02:18 7,7 C 7,2 C 6,1 C 88 % 1028,0 hPa 0,0 l/m 0 min 0 min 0 W/m 12,9 km/h (3 Bft) 95,74 %
30.12.2018 02:20 7,7 C 7,2 C 6,1 C 88 % 1028,1 hPa 0,0 l/m 0 min 0 min 0 W/m 19,3 km/h (3 Bft) 100,00 %
30.12.2018 02:22 7,7 C 7,2 C 6,1 C 89 % 1028,0 hPa 0,0 l/m 0 min 0 min 0 W/m 19,3 km/h (3 Bft) 95,74 %
30.12.2018 02:24 7,7 C 7,2 C 6,1 C 89 % 1028,1 hPa 0,0 l/m 0 min 0 min 0 W/m 22,5 km/h (4 Bft) 100,00 %
30.12.2018 02:26 7,7 C 7,2 C 6,1 C 89 % 1028,1 hPa 0,0 l/m 0 min 0 min 0 W/m 19,3 km/h (3 Bft) 100,00 %
30.12.2018 02:28 7,7 C 7,2 C 6,1 C 89 % 1028,2 hPa 0,0 l/m 0 min 0 min 0 W/m 22,5 km/h (4 Bft) 97,87 %
30.12.2018 02:30 7,6 C 7,2 C 6,1 C 89 % 1028,4 hPa 0,0 l/m 0 min 0 min 0 W/m 16,1 km/h (3 Bft) 100,00 %
30.12.2018 02:32 7,6 C 7,2 C 6,1 C 89 % 1028,2 hPa 0,0 l/m 0 min 0 min 0 W/m 22,5 km/h (4 Bft) 100,00 %
30.12.2018 02:34 7,6 C 7,2 C 6,1 C 89 % 1028,4 hPa 0,0 l/m 0 min 0 min 0 W/m 22,5 km/h (4 Bft) 100,00 %
30.12.2018 02:36 7,6 C 7,2 C 6,1 C 89 % 1028,3 hPa 0,0 l/m 0 min 0 min 0 W/m 22,5 km/h (4 Bft) 100,00 %
30.12.2018 02:38 7,6 C 7,2 C 6,1 C 89 % 1028,2 hPa 0,0 l/m 0 min 0 min 0 W/m 19,3 km/h (3 Bft) 100,00 %
30.12.2018 02:40 7,6 C 7,2 C 6,1 C 89 % 1028,1 hPa 0,0 l/m 0 min 0 min 0 W/m 12,9 km/h (3 Bft) 100,00 %
30.12.2018 02:42 7,6 C 7,2 C 6,1 C 89 % 1028,1 hPa 0,0 l/m 0 min 0 min 0 W/m 22,5 km/h (4 Bft) 97,87 %
30.12.2018 02:44 7,6 C 7,2 C 6,1 C 89 % 1028,2 hPa 0,0 l/m 0 min 0 min 0 W/m 25,7 km/h (4 Bft) 100,00 %
30.12.2018 02:46 7,6 C 7,2 C 6,1 C 89 % 1028,4 hPa 0,0 l/m 0 min 0 min 0 W/m 22,5 km/h (4 Bft) 100,00 %
30.12.2018 02:48 7,6 C 7,2 C 6,1 C 89 % 1028,3 hPa 0,0 l/m 0 min 0 min 0 W/m 19,3 km/h (3 Bft) 100,00 %
30.12.2018 02:50 7,6 C 7,2 C 6,1 C 89 % 1028,4 hPa 0,0 l/m 0 min 0 min 0 W/m 22,5 km/h (4 Bft) 97,87 %
30.12.2018 02:52 7,6 C 7,2 C 6,1 C 89 % 1028,4 hPa 0,0 l/m 0 min 0 min 0 W/m 19,3 km/h (3 Bft) 100,00 %
30.12.2018 02:54 7,6 C 7,2 C 6,1 C 89 % 1028,4 hPa 0,0 l/m 0 min 0 min 0 W/m 16,1 km/h (3 Bft) 100,00 %
30.12.2018 02:56 7,6 C 7,2 C 6,1 C 89 % 1028,4 hPa 0,0 l/m 0 min 0 min 0 W/m 22,5 km/h (4 Bft) 100,00 %
30.12.2018 02:58 7,6 C 7,2 C 6,1 C 89 % 1028,5 hPa 0,0 l/m 0 min 0 min 0 W/m 16,1 km/h (3 Bft) 100,00 %
30.12.2018 03:00 7,5 C 7,2 C 6,1 C 89 % 1028,5 hPa 0,0 l/m 0 min 0 min 0 W/m 19,3 km/h (3 Bft) 100,00 %
30.12.2018 03:02 7,6 C 7,2 C 6,1 C 89 % 1028,4 hPa 0,0 l/m 0 min 0 min 0 W/m 16,1 km/h (3 Bft) 100,00 %
30.12.2018 03:04 7,6 C 7,2 C 6,1 C 89 % 1028,7 hPa 0,0 l/m 0 min 0 min 0 W/m 19,3 km/h (3 Bft) 100,00 %
30.12.2018 03:06 7,6 C 7,2 C 6,1 C 89 % 1028,6 hPa 0,0 l/m 0 min 0 min 0 W/m 16,1 km/h (3 Bft) 100,00 %
30.12.2018 03:08 7,5 C 7,2 C 6,1 C 89 % 1028,6 hPa 0,0 l/m 0 min 0 min 0 W/m 19,3 km/h (3 Bft) 100,00 %
30.12.2018 03:10 7,5 C 7,2 C 6,1 C 89 % 1028,6 hPa 0,0 l/m 0 min 0 min 0 W/m 12,9 km/h (3 Bft) 100,00 %
30.12.2018 03:12 7,5 C 7,2 C 6,1 C 89 % 1028,8 hPa 0,0 l/m 0 min 0 min 0 W/m 19,3 km/h (3 Bft) 97,83 %
30.12.2018 03:14 7,5 C 7,2 C 6,1 C 89 % 1028,7 hPa 0,0 l/m 0 min 0 min 0 W/m 16,1 km/h (3 Bft) 100,00 %
30.12.2018 03:16 7,6 C 7,2 C 6,1 C 89 % 1028,9 hPa 0,0 l/m 0 min 0 min 0 W/m 16,1 km/h (3 Bft) 95,74 %
30.12.2018 03:18 7,6 C 7,2 C 6,1 C 89 % 1028,8 hPa 0,0 l/m 0 min 0 min 0 W/m 19,3 km/h (3 Bft) 95,74 %
30.12.2018 03:20 7,6 C 7,2 C 6,1 C 89 % 1028,7 hPa 0,0 l/m 0 min 0 min 0 W/m 16,1 km/h (3 Bft) 97,87 %
30.12.2018 03:22 7,6 C 7,2 C 6,1 C 89 % 1028,7 hPa 0,0 l/m 0 min 0 min 0 W/m 16,1 km/h (3 Bft) 95,65 %
30.12.2018 03:24 7,6 C 7,2 C 6,1 C 89 % 1028,9 hPa 0,0 l/m 0 min 0 min 0 W/m 12,9 km/h (3 Bft) 97,87 %
30.12.2018 03:26 7,6 C 7,2 C 6,1 C 89 % 1028,8 hPa 0,0 l/m 0 min 0 min 0 W/m 16,1 km/h (3 Bft) 95,74 %
30.12.2018 03:28 7,6 C 7,2 C 6,1 C 89 % 1029,0 hPa 0,0 l/m 0 min 0 min 0 W/m 9,7 km/h (2 Bft) 95,74 %
30.12.2018 03:30 7,6 C 7,2 C 6,1 C 89 % 1029,0 hPa 0,0 l/m 0 min 0 min 0 W/m 9,7 km/h (2 Bft) 93,62 %
30.12.2018 03:32 7,6 C 6,7 C 6,1 C 89 % 1029,0 hPa 0,0 l/m 0 min 0 min 0 W/m 16,1 km/h (3 Bft) 95,74 %
30.12.2018 03:34 7,6 C 7,2 C 6,1 C 89 % 1029,0 hPa 0,0 l/m 0 min 0 min 0 W/m 12,9 km/h (3 Bft) 93,62 %
30.12.2018 03:36 7,5 C 7,2 C 6,1 C 89 % 1029,1 hPa 0,0 l/m 0 min 0 min 0 W/m 12,9 km/h (3 Bft) 95,65 %
30.12.2018 03:38 7,6 C 7,2 C 6,1 C 89 % 1029,0 hPa 0,0 l/m 0 min 0 min 0 W/m 9,7 km/h (2 Bft) 95,74 %
30.12.2018 03:40 7,6 C 6,7 C 6,1 C 89 % 1029,0 hPa 0,0 l/m 0 min 0 min 0 W/m 6,4 km/h (2 Bft) 95,74 %
30.12.2018 03:42 7,6 C 6,7 C 6,1 C 89 % 1029,0 hPa 0,0 l/m 0 min 0 min 0 W/m 16,1 km/h (3 Bft) 92,00 %
30.12.2018 03:44 7,5 C 6,7 C 6,1 C 89 % 1028,9 hPa 0,0 l/m 0 min 0 min 0 W/m 12,9 km/h (3 Bft) 95,74 %
30.12.2018 03:46 7,5 C 6,7 C 6,1 C 89 % 1029,0 hPa 0,0 l/m 0 min 0 min 0 W/m 12,9 km/h (3 Bft) 95,65 %
30.12.2018 03:48 7,5 C 6,7 C 6,1 C 89 % 1029,1 hPa 0,0 l/m 0 min 0 min 0 W/m 9,7 km/h (2 Bft) 97,14 %
30.12.2018 03:50 7,5 C 6,7 C 6,1 C 89 % 1029,0 hPa 0,0 l/m 0 min 0 min 0 W/m 12,9 km/h (3 Bft) 93,22 %
30.12.2018 03:52 7,5 C 6,7 C 6,1 C 89 % 1029,0 hPa 0,0 l/m 0 min 0 min 0 W/m 12,9 km/h (3 Bft) 93,62 %
30.12.2018 03:54 7,5 C 6,7 C 6,1 C 89 % 1028,9 hPa 0,0 l/m 0 min 0 min 0 W/m 9,7 km/h (2 Bft) 95,74 %
30.12.2018 03:56 7,4 C 6,7 C 6,1 C 89 % 1029,2 hPa 0,0 l/m 0 min 0 min 0 W/m 12,9 km/h (3 Bft) 93,62 %
30.12.2018 03:58 7,4 C 6,7 C 6,1 C 89 % 1029,0 hPa 0,0 l/m 0 min 0 min 0 W/m 12,9 km/h (3 Bft) 95,65 %
30.12.2018 04:00 7,4 C 6,7 C 6,1 C 89 % 1029,1 hPa 0,0 l/m 0 min 0 min 0 W/m 19,3 km/h (3 Bft) 95,74 %
30.12.2018 04:02 7,4 C 6,7 C 6,1 C 89 % 1029,1 hPa 0,0 l/m 0 min 0 min 0 W/m 9,7 km/h (2 Bft) 100,00 %
30.12.2018 04:04 7,4 C 6,7 C 6,1 C 90 % 1029,1 hPa 0,0 l/m 0 min 0 min 0 W/m 9,7 km/h (2 Bft) 95,74 %
30.12.2018 04:06 7,4 C 6,7 C 6,1 C 90 % 1029,1 hPa 0,0 l/m 0 min 0 min 0 W/m 16,1 km/h (3 Bft) 100,00 %
30.12.2018 04:08 7,4 C 6,7 C 6,1 C 90 % 1029,1 hPa 0,0 l/m 0 min 0 min 0 W/m 16,1 km/h (3 Bft) 100,00 %
30.12.2018 04:10 7,4 C 6,7 C 6,1 C 90 % 1029,2 hPa 0,0 l/m 0 min 0 min 0 W/m 12,9 km/h (3 Bft) 100,00 %
30.12.2018 04:12 7,4 C 6,7 C 6,1 C 90 % 1029,1 hPa 0,0 l/m 0 min 0 min 0 W/m 9,7 km/h (2 Bft) 97,87 %
30.12.2018 04:14 7,4 C 6,7 C 6,1 C 90 % 1029,1 hPa 0,0 l/m 0 min 0 min 0 W/m 12,9 km/h (3 Bft) 91,49 %
30.12.2018 04:16 7,4 C 6,7 C 6,1 C 89 % 1029,2 hPa 0,0 l/m 0 min 0 min 0 W/m 12,9 km/h (3 Bft) 100,00 %
30.12.2018 04:18 7,4 C 6,7 C 6,1 C 89 % 1029,0 hPa 0,0 l/m 0 min 0 min 0 W/m 9,7 km/h (2 Bft) 97,87 %
30.12.2018 04:20 7,4 C 6,7 C 6,1 C 89 % 1028,9 hPa 0,0 l/m 0 min 0 min 0 W/m 9,7 km/h (2 Bft) 97,83 %
30.12.2018 04:22 7,4 C 6,7 C 6,1 C 89 % 1028,8 hPa 0,0 l/m 0 min 0 min 0 W/m 9,7 km/h (2 Bft) 97,87 %
30.12.2018 04:24 7,4 C 6,7 C 6,1 C 89 % 1028,8 hPa 0,0 l/m 0 min 0 min 0 W/m 9,7 km/h (2 Bft) 95,74 %
30.12.2018 04:26 7,3 C 6,7 C 6,1 C 89 % 1028,9 hPa 0,0 l/m 0 min 0 min 0 W/m 9,7 km/h (2 Bft) 97,87 %
30.12.2018 04:28 7,3 C 6,7 C 6,1 C 89 % 1028,9 hPa 0,0 l/m 0 min 0 min 0 W/m 9,7 km/h (2 Bft) 97,87 %
30.12.2018 04:30 7,3 C 6,7 C 6,1 C 89 % 1029,0 hPa 0,0 l/m 0 min 0 min 0 W/m 9,7 km/h (2 Bft) 97,87 %
30.12.2018 04:32 7,3 C 6,7 C 6,1 C 89 % 1029,1 hPa 0,0 l/m 0 min 0 min 0 W/m 12,9 km/h (3 Bft) 95,65 %
30.12.2018 04:34 7,3 C 6,7 C 6,1 C 90 % 1029,1 hPa 0,0 l/m 0 min 0 min 0 W/m 12,9 km/h (3 Bft) 95,74 %
30.12.2018 04:36 7,3 C 6,7 C 6,1 C 90 % 1029,2 hPa 0,0 l/m 0 min 0 min 0 W/m 9,7 km/h (2 Bft) 97,87 %
30.12.2018 04:38 7,3 C 6,7 C 6,1 C 90 % 1029,2 hPa 0,0 l/m 0 min 0 min 0 W/m 12,9 km/h (3 Bft) 97,87 %
30.12.2018 04:40 7,3 C 6,7 C 6,1 C 90 % 1029,2 hPa 0,0 l/m 0 min 0 min 0 W/m 9,7 km/h (2 Bft) 97,87 %
30.12.2018 04:42 7,3 C 6,7 C 6,1 C 90 % 1029,1 hPa 0,0 l/m 0 min 0 min 0 W/m 22,5 km/h (4 Bft) 97,87 %
30.12.2018 04:44 7,3 C 6,7 C 6,1 C 90 % 1029,1 hPa 0,0 l/m 0 min 0 min 0 W/m 12,9 km/h (3 Bft) 100,00 %
30.12.2018 04:46 7,3 C 6,7 C 6,1 C 90 % 1029,0 hPa 0,0 l/m 0 min 0 min 0 W/m 6,4 km/h (2 Bft) 97,87 %
30.12.2018 04:48 7,3 C 6,7 C 6,1 C 90 % 1029,2 hPa 0,0 l/m 0 min 0 min 0 W/m 12,9 km/h (3 Bft) 100,00 %
30.12.2018 04:50 7,3 C 6,7 C 5,6 C 90 % 1029,2 hPa 0,0 l/m 0 min 0 min 0 W/m 6,4 km/h (2 Bft) 100,00 %
30.12.2018 04:52 7,3 C 6,7 C 5,6 C 90 % 1029,1 hPa 0,0 l/m 0 min 0 min 0 W/m 6,4 km/h (2 Bft) 100,00 %
30.12.2018 04:54 7,3 C 6,7 C 5,6 C 90 % 1029,2 hPa 0,0 l/m 0 min 0 min 0 W/m 12,9 km/h (3 Bft) 100,00 %
30.12.2018 04:56 7,2 C 6,7 C 5,6 C 90 % 1029,2 hPa 0,0 l/m 0 min 0 min 0 W/m 6,4 km/h (2 Bft) 95,65 %
30.12.2018 04:58 7,2 C 6,7 C 5,6 C 90 % 1029,2 hPa 0,0 l/m 0 min 0 min 0 W/m 9,7 km/h (2 Bft) 100,00 %
30.12.2018 05:00 7,2 C 6,7 C 5,6 C 90 % 1029,3 hPa 0,0 l/m 0 min 0 min 0 W/m 9,7 km/h (2 Bft) 100,00 %
30.12.2018 05:02 7,2 C 6,7 C 5,6 C 90 % 1029,4 hPa 0,0 l/m 0 min 0 min 0 W/m 9,7 km/h (2 Bft) 100,00 %
30.12.2018 05:04 7,2 C 6,7 C 5,6 C 90 % 1029,4 hPa 0,0 l/m 0 min 0 min 0 W/m 6,4 km/h (2 Bft) 97,87 %
30.12.2018 05:05 7,2 C 6,7 C 5,6 C 90 % 1029,4 hPa 0,0 l/m 0 min 0 min 0 W/m 12,9 km/h (3 Bft) 100,00 %
30.12.2018 05:10 7,2 C 6,7 C 5,6 C 90 % 1029,4 hPa 0,0 l/m 0 min 0 min 0 W/m 12,9 km/h (3 Bft) 100,00 %
30.12.2018 05:12 7,2 C 6,7 C 5,6 C 90 % 1029,3 hPa 0,0 l/m 0 min 0 min 0 W/m 6,4 km/h (2 Bft) 100,00 %
30.12.2018 05:14 7,2 C 6,7 C 5,6 C 90 % 1029,3 hPa 0,0 l/m 0 min 0 min 0 W/m 12,9 km/h (3 Bft) 97,87 %
30.12.2018 05:16 7,2 C 6,7 C 5,6 C 91 % 1029,3 hPa 0,0 l/m 0 min 0 min 0 W/m 9,7 km/h (2 Bft) 100,00 %
30.12.2018 05:18 7,2 C 6,7 C 6,1 C 91 % 1029,2 hPa 0,0 l/m 0 min 0 min 0 W/m 9,7 km/h (2 Bft) 100,00 %
30.12.2018 05:20 7,2 C 6,7 C 5,6 C 91 % 1029,3 hPa 0,0 l/m 0 min 0 min 0 W/m 9,7 km/h (2 Bft) 100,00 %
30.12.2018 05:22 7,2 C 6,7 C 5,6 C 91 % 1029,4 hPa 0,0 l/m 0 min 0 min 0 W/m 9,7 km/h (2 Bft) 100,00 %
30.12.2018 05:24 7,2 C 6,7 C 5,6 C 91 % 1029,3 hPa 0,0 l/m 0 min 0 min 0 W/m 9,7 km/h (2 Bft) 100,00 %
30.12.2018 05:26 7,2 C 6,7 C 5,6 C 91 % 1029,4 hPa 0,0 l/m 0 min 0 min 0 W/m 9,7 km/h (2 Bft) 100,00 %
30.12.2018 05:28 7,1 C 6,7 C 5,6 C 91 % 1029,3 hPa 0,0 l/m 0 min 0 min 0 W/m 6,4 km/h (2 Bft) 100,00 %
30.12.2018 05:30 7,1 C 6,7 C 5,6 C 91 % 1029,4 hPa 0,0 l/m 0 min 0 min 0 W/m 9,7 km/h (2 Bft) 100,00 %
30.12.2018 05:32 7,1 C 6,7 C 5,6 C 91 % 1029,5 hPa 0,0 l/m 0 min 0 min 0 W/m 12,9 km/h (3 Bft) 100,00 %
30.12.2018 05:34 7,1 C 6,7 C 5,6 C 91 % 1029,5 hPa 0,0 l/m 0 min 0 min 0 W/m 9,7 km/h (2 Bft) 100,00 %
30.12.2018 05:36 7,1 C 6,7 C 5,6 C 91 % 1029,5 hPa 0,0 l/m 0 min 0 min 0 W/m 9,7 km/h (2 Bft) 100,00 %
30.12.2018 05:38 7,1 C 6,7 C 5,6 C 91 % 1029,5 hPa 0,0 l/m 0 min 0 min 0 W/m 6,4 km/h (2 Bft) 100,00 %
30.12.2018 05:40 7,1 C 6,1 C 5,6 C 91 % 1029,5 hPa 0,0 l/m 0 min 0 min 0 W/m 9,7 km/h (2 Bft) 100,00 %
30.12.2018 05:42 7,1 C 6,1 C 5,6 C 91 % 1029,6 hPa 0,0 l/m 0 min 0 min 0 W/m 9,7 km/h (2 Bft) 100,00 %
30.12.2018 05:44 7,1 C 6,7 C 5,6 C 91 % 1029,6 hPa 0,0 l/m 0 min 0 min 0 W/m 9,7 km/h (2 Bft) 100,00 %
30.12.2018 05:46 7,1 C 6,7 C 5,6 C 91 % 1029,6 hPa 0,0 l/m 0 min 0 min 0 W/m 12,9 km/h (3 Bft) 100,00 %
30.12.2018 05:48 7,1 C 6,7 C 5,6 C 91 % 1029,6 hPa 0,0 l/m 0 min 0 min 0 W/m 9,7 km/h (2 Bft) 98,00 %
30.12.2018 05:50 7,1 C 6,7 C 5,6 C 91 % 1029,6 hPa 0,0 l/m 0 min 0 min 0 W/m 6,4 km/h (2 Bft) 95,74 %
30.12.2018 05:52 7,1 C 6,7 C 5,6 C 91 % 1029,6 hPa 0,0 l/m 0 min 0 min 0 W/m 9,7 km/h (2 Bft) 95,74 %
30.12.2018 05:54 7,1 C 6,7 C 5,6 C 91 % 1029,6 hPa 0,0 l/m 0 min 0 min 0 W/m 9,7 km/h (2 Bft) 97,87 %
30.12.2018 05:56 7,1 C 6,7 C 5,6 C 91 % 1029,6 hPa 0,0 l/m 0 min 0 min 0 W/m 9,7 km/h (2 Bft) 91,30 %
30.12.2018 05:58 7,0 C 6,1 C 5,6 C 91 % 1029,6 hPa 0,0 l/m 0 min 0 min 0 W/m 9,7 km/h (2 Bft) 93,62 %
30.12.2018 06:00 7,0 C 6,1 C 5,6 C 91 % 1029,5 hPa 0,0 l/m 0 min 0 min 0 W/m 6,4 km/h (2 Bft) 87,23 %
30.12.2018 06:02 7,0 C 6,7 C 5,6 C 91 % 1029,6 hPa 0,0 l/m 0 min 0 min 0 W/m 9,7 km/h (2 Bft) 75,00 %
30.12.2018 06:04 7,0 C 6,7 C 5,6 C 91 % 1029,6 hPa 0,0 l/m 0 min 0 min 0 W/m 9,7 km/h (2 Bft) 72,34 %
30.12.2018 06:08 7,0 C 6,7 C 5,6 C 92 % 1029,7 hPa 0,0 l/m 0 min 0 min 0 W/m 9,7 km/h (2 Bft) 82,80 %
30.12.2018 06:10 7,0 C 6,7 C 5,6 C 92 % 1029,7 hPa 0,0 l/m 0 min 0 min 0 W/m 6,4 km/h (2 Bft) 93,62 %
30.12.2018 06:12 7,0 C 6,7 C 5,6 C 92 % 1029,7 hPa 0,0 l/m 0 min 0 min 0 W/m 9,7 km/h (2 Bft) 95,74 %
30.12.2018 06:14 7,0 C 6,7 C 5,6 C 92 % 1029,8 hPa 0,0 l/m 0 min 0 min 0 W/m 9,7 km/h (2 Bft) 95,74 %
30.12.2018 06:16 7,0 C 6,7 C 5,6 C 92 % 1029,7 hPa 0,0 l/m 0 min 0 min 0 W/m 9,7 km/h (2 Bft) 93,62 %
30.12.2018 06:18 7,0 C 6,7 C 5,6 C 92 % 1029,8 hPa 0,0 l/m 0 min 0 min 0 W/m 12,9 km/h (3 Bft) 93,48 %
30.12.2018 06:20 7,0 C 6,7 C 5,6 C 92 % 1029,8 hPa 0,0 l/m 0 min 0 min 0 W/m 12,9 km/h (3 Bft) 93,62 %
30.12.2018 06:22 6,9 C 6,1 C 5,6 C 92 % 1029,8 hPa 0,0 l/m 0 min 0 min 0 W/m 16,1 km/h (3 Bft) 95,74 %
30.12.2018 06:24 6,9 C 6,1 C 5,6 C 92 % 1029,9 hPa 0,0 l/m 0 min 0 min 0 W/m 9,7 km/h (2 Bft) 93,62 %
30.12.2018 06:26 6,9 C 6,1 C 5,6 C 92 % 1029,8 hPa 0,0 l/m 0 min 0 min 0 W/m 9,7 km/h (2 Bft) 93,62 %
30.12.2018 06:28 6,9 C 6,1 C 5,6 C 92 % 1029,8 hPa 0,0 l/m 0 min 0 min 0 W/m 9,7 km/h (2 Bft) 95,74 %
30.12.2018 06:30 6,9 C 6,1 C 5,6 C 92 % 1029,7 hPa 0,0 l/m 0 min 0 min 0 W/m 9,7 km/h (2 Bft) 93,48 %
30.12.2018 06:32 6,9 C 6,1 C 5,6 C 92 % 1029,8 hPa 0,0 l/m 0 min 0 min 0 W/m 6,4 km/h (2 Bft) 95,74 %
30.12.2018 06:34 6,9 C 6,1 C 5,6 C 92 % 1029,8 hPa 0,0 l/m 0 min 0 min 0 W/m 9,7 km/h (2 Bft) 97,87 %
30.12.2018 06:36 6,9 C 6,1 C 5,6 C 92 % 1029,7 hPa 0,0 l/m 0 min 0 min 0 W/m 9,7 km/h (2 Bft) 95,74 %
30.12.2018 06:38 6,9 C 6,1 C 5,6 C 92 % 1029,7 hPa 0,0 l/m 0 min 0 min 0 W/m 9,7 km/h (2 Bft) 97,87 %
30.12.2018 06:40 6,8 C 6,1 C 5,6 C 92 % 1029,6 hPa 0,0 l/m 0 min 0 min 0 W/m 6,4 km/h (2 Bft) 97,87 %
30.12.2018 06:42 6,8 C 6,1 C 5,0 C 92 % 1029,8 hPa 0,0 l/m 0 min 0 min 0 W/m 6,4 km/h (2 Bft) 95,65 %
30.12.2018 06:44 6,8 C 6,1 C 5,0 C 92 % 1029,9 hPa 0,0 l/m 0 min 0 min 0 W/m 9,7 km/h (2 Bft) 95,74 %
30.12.2018 06:46 6,8 C 5,6 C 5,0 C 92 % 1029,8 hPa 0,0 l/m 0 min 0 min 0 W/m 6,4 km/h (2 Bft) 97,87 %
30.12.2018 06:48 6,8 C 5,6 C 5,0 C 92 % 1030,1 hPa 0,0 l/m 0 min 0 min 0 W/m 9,7 km/h (2 Bft) 97,87 %
30.12.2018 06:50 6,7 C 5,6 C 5,0 C 92 % 1029,9 hPa 0,0 l/m 0 min 0 min 0 W/m 9,7 km/h (2 Bft) 97,87 %
30.12.2018 06:52 6,7 C 5,6 C 5,0 C 92 % 1030,0 hPa 0,0 l/m 0 min 0 min 0 W/m 6,4 km/h (2 Bft) 95,35 %
30.12.2018 06:54 6,7 C 5,6 C 5,0 C 92 % 1029,8 hPa 0,0 l/m 0 min 0 min 0 W/m 9,7 km/h (2 Bft) 93,88 %
30.12.2018 06:56 6,6 C 5,6 C 5,0 C 92 % 1029,8 hPa 0,0 l/m 0 min 0 min 0 W/m 6,4 km/h (2 Bft) 91,67 %
30.12.2018 06:58 6,6 C 5,6 C 5,0 C 92 % 1030,1 hPa 0,0 l/m 0 min 0 min 0 W/m 9,7 km/h (2 Bft) 93,62 %
30.12.2018 07:00 6,6 C 5,6 C 5,0 C 92 % 1030,0 hPa 0,0 l/m 0 min 0 min 0 W/m 9,7 km/h (2 Bft) 100,00 %
30.12.2018 07:02 6,5 C 5,6 C 5,0 C 92 % 1030,1 hPa 0,0 l/m 0 min 0 min 0 W/m 9,7 km/h (2 Bft) 97,67 %
30.12.2018 07:04 6,5 C 5,6 C 5,0 C 92 % 1029,9 hPa 0,0 l/m 0 min 0 min 0 W/m 16,1 km/h (3 Bft) 98,00 %
30.12.2018 07:06 6,4 C 5,6 C 5,0 C 92 % 1029,9 hPa 0,0 l/m 0 min 0 min 0 W/m 6,4 km/h (2 Bft) 89,36 %
30.12.2018 07:08 6,4 C 5,6 C 5,0 C 92 % 1029,8 hPa 0,0 l/m 0 min 0 min 0 W/m 6,4 km/h (2 Bft) 95,74 %
30.12.2018 07:10 6,4 C 5,6 C 5,0 C 92 % 1030,1 hPa 0,0 l/m 0 min 0 min 0 W/m 6,4 km/h (2 Bft) 93,62 %
30.12.2018 07:12 6,4 C 5,6 C 5,0 C 92 % 1030,1 hPa 0,0 l/m 0 min 0 min 0 W/m 6,4 km/h (2 Bft) 93,62 %
30.12.2018 07:14 6,4 C 5,6 C 5,0 C 92 % 1030,1 hPa 0,0 l/m 0 min 0 min 0 W/m 9,7 km/h (2 Bft) 89,36 %
30.12.2018 07:16 6,4 C 5,6 C 5,0 C 92 % 1030,2 hPa 0,0 l/m 0 min 0 min 0 W/m 6,4 km/h (2 Bft) 80,43 %
30.12.2018 07:18 6,4 C 5,6 C 5,0 C 92 % 1030,1 hPa 0,0 l/m 0 min 0 min 0 W/m 6,4 km/h (2 Bft) 95,74 %
30.12.2018 07:20 6,4 C 5,6 C 5,0 C 92 % 1030,2 hPa 0,0 l/m 0 min 0 min 0 W/m 9,7 km/h (2 Bft) 95,74 %
30.12.2018 07:22 6,3 C 5,6 C 5,0 C 92 % 1030,0 hPa 0,0 l/m 0 min 0 min 0 W/m 6,4 km/h (2 Bft) 95,74 %
30.12.2018 07:24 6,3 C 5,6 C 5,0 C 92 % 1030,3 hPa 0,0 l/m 0 min 0 min 0 W/m 6,4 km/h (2 Bft) 97,87 %
30.12.2018 07:26 6,3 C 5,6 C 5,0 C 92 % 1030,3 hPa 0,0 l/m 0 min 0 min 0 W/m 9,7 km/h (2 Bft) 97,87 %
30.12.2018 07:28 6,3 C 5,6 C 5,0 C 92 % 1030,3 hPa 0,0 l/m 0 min 0 min 0 W/m 9,7 km/h (2 Bft) 97,83 %
30.12.2018 07:30 6,3 C 5,6 C 5,0 C 93 % 1030,3 hPa 0,0 l/m 0 min 0 min 0 W/m 6,4 km/h (2 Bft) 95,74 %
30.12.2018 07:32 6,2 C 5,6 C 5,0 C 93 % 1030,3 hPa 0,0 l/m 0 min 0 min 0 W/m 9,7 km/h (2 Bft) 97,67 %
30.12.2018 07:34 6,2 C 5,6 C 5,0 C 93 % 1030,4 hPa 0,0 l/m 0 min 0 min 0 W/m 6,4 km/h (2 Bft) 98,00 %
30.12.2018 07:36 6,2 C 5,6 C 4,4 C 92 % 1030,5 hPa 0,0 l/m 0 min 0 min 0 W/m 6,4 km/h (2 Bft) 95,74 %
30.12.2018 07:38 6,2 C 5,6 C 5,0 C 93 % 1030,4 hPa 0,0 l/m 0 min 0 min 0 W/m 6,4 km/h (2 Bft) 91,49 %
30.12.2018 07:40 6,2 C 5,6 C 5,0 C 93 % 1030,5 hPa 0,0 l/m 0 min 0 min 0 W/m 6,4 km/h (2 Bft) 97,87 %
30.12.2018 07:42 6,2 C 5,6 C 5,0 C 93 % 1030,6 hPa 0,0 l/m 0 min 0 min 0 W/m 6,4 km/h (2 Bft) 97,83 %
30.12.2018 07:44 6,2 C 5,6 C 5,0 C 93 % 1030,6 hPa 0,0 l/m 0 min 0 min 0 W/m 6,4 km/h (2 Bft) 97,87 %
30.12.2018 07:46 6,2 C 5,6 C 5,0 C 93 % 1030,6 hPa 0,0 l/m 0 min 0 min 0 W/m 6,4 km/h (2 Bft) 97,87 %
30.12.2018 07:48 6,2 C 5,6 C 5,0 C 93 % 1030,7 hPa 0,0 l/m 0 min 0 min 0 W/m 9,7 km/h (2 Bft) 97,92 %
30.12.2018 07:50 6,2 C 5,6 C 5,0 C 93 % 1030,6 hPa 0,0 l/m 0 min 0 min 0 W/m 9,7 km/h (2 Bft) 97,87 %
30.12.2018 07:52 6,2 C 5,6 C 5,0 C 93 % 1030,8 hPa 0,0 l/m 0 min 0 min 0 W/m 6,4 km/h (2 Bft) 97,83 %
30.12.2018 07:54 6,2 C 5,6 C 5,0 C 93 % 1030,8 hPa 0,0 l/m 0 min 0 min 0 W/m 6,4 km/h (2 Bft) 95,74 %
30.12.2018 07:56 6,2 C 5,6 C 5,0 C 93 % 1030,7 hPa 0,0 l/m 0 min 0 min 0 W/m 6,4 km/h (2 Bft) 97,87 %
30.12.2018 07:58 6,2 C 5,6 C 5,0 C 93 % 1030,8 hPa 0,0 l/m 0 min 0 min 0 W/m 6,4 km/h (2 Bft) 97,87 %
30.12.2018 08:00 6,2 C 5,6 C 5,0 C 93 % 1030,9 hPa 0,0 l/m 0 min 0 min 0 W/m 9,7 km/h (2 Bft) 97,87 %
30.12.2018 08:02 6,2 C 5,6 C 5,0 C 93 % 1031,0 hPa 0,0 l/m 0 min 0 min 0 W/m 9,7 km/h (2 Bft) 93,48 %
30.12.2018 08:04 6,2 C 5,6 C 5,0 C 93 % 1031,0 hPa 0,0 l/m 0 min 0 min 0 W/m 9,7 km/h (2 Bft) 97,87 %
30.12.2018 08:06 6,2 C 5,6 C 5,0 C 94 % 1030,7 hPa 0,0 l/m 0 min 0 min 0 W/m 12,9 km/h (3 Bft) 95,74 %
30.12.2018 08:08 6,2 C 5,6 C 5,0 C 94 % 1030,8 hPa 0,0 l/m 0 min 0 min 0 W/m 12,9 km/h (3 Bft) 97,67 %
30.12.2018 08:10 6,2 C 5,6 C 5,0 C 94 % 1030,9 hPa 0,0 l/m 0 min 0 min 0 W/m 12,9 km/h (3 Bft) 97,87 %
30.12.2018 08:12 6,2 C 5,6 C 5,0 C 94 % 1031,0 hPa 0,0 l/m 0 min 0 min 0 W/m 6,4 km/h (2 Bft) 95,74 %
30.12.2018 08:14 6,2 C 5,6 C 5,0 C 94 % 1031,0 hPa 0,0 l/m 0 min 0 min 0 W/m 6,4 km/h (2 Bft) 100,00 %
30.12.2018 08:16 6,2 C 5,6 C 5,0 C 94 % 1031,0 hPa 0,0 l/m 0 min 0 min 0 W/m 9,7 km/h (2 Bft) 100,00 %
30.12.2018 08:18 6,2 C 6,1 C 5,0 C 94 % 1030,9 hPa 0,0 l/m 0 min 0 min 0 W/m 6,4 km/h (2 Bft) 97,87 %
30.12.2018 08:20 6,3 C 6,1 C 5,0 C 94 % 1031,0 hPa 0,0 l/m 0 min 0 min 0 W/m 6,4 km/h (2 Bft) 96,00 %
30.12.2018 08:22 6,3 C 6,1 C 5,0 C 94 % 1031,0 hPa 0,0 l/m 0 min 0 min 0 W/m 6,4 km/h (2 Bft) 100,00 %
30.12.2018 08:24 6,3 C 6,1 C 5,0 C 94 % 1031,0 hPa 0,0 l/m 0 min 0 min 0 W/m 12,9 km/h (3 Bft) 97,87 %
30.12.2018 08:26 6,3 C 6,1 C 5,0 C 94 % 1031,0 hPa 0,0 l/m 0 min 0 min 0 W/m 6,4 km/h (2 Bft) 100,00 %
30.12.2018 08:28 6,3 C 6,1 C 5,0 C 94 % 1031,1 hPa 0,0 l/m 0 min 0 min 0 W/m 9,7 km/h (2 Bft) 95,74 %
30.12.2018 08:30 6,3 C 6,1 C 5,0 C 94 % 1031,1 hPa 0,0 l/m 0 min 0 min 0 W/m 9,7 km/h (2 Bft) 97,87 %
30.12.2018 08:32 6,3 C 6,1 C 5,0 C 94 % 1031,0 hPa 0,0 l/m 0 min 0 min 0 W/m 9,7 km/h (2 Bft) 86,79 %
30.12.2018 08:34 6,3 C 6,1 C 5,0 C 94 % 1031,0 hPa 0,0 l/m 0 min 0 min 0 W/m 9,7 km/h (2 Bft) 89,36 %
30.12.2018 08:36 6,3 C 6,1 C 5,6 C 94 % 1031,0 hPa 0,0 l/m 0 min 0 min 0 W/m 9,7 km/h (2 Bft) 87,23 %
30.12.2018 08:38 6,4 C 6,1 C 5,6 C 94 % 1030,9 hPa 0,0 l/m 0 min 0 min 0 W/m 16,1 km/h (3 Bft) 86,96 %
30.12.2018 08:40 6,4 C 6,1 C 5,6 C 94 % 1031,0 hPa 0,0 l/m 0 min 0 min 0 W/m 6,4 km/h (2 Bft) 89,36 %
30.12.2018 08:42 6,4 C 6,1 C 5,6 C 94 % 1030,8 hPa 0,0 l/m 0 min 0 min 0 W/m 6,4 km/h (2 Bft) 93,62 %
30.12.2018 08:44 6,4 C 6,1 C 5,6 C 94 % 1030,9 hPa 0,0 l/m 0 min 0 min 0 W/m 9,7 km/h (2 Bft) 78,72 %
30.12.2018 08:46 6,4 C 6,1 C 5,6 C 94 % 1030,8 hPa 0,0 l/m 0 min 0 min 1 W/m 12,9 km/h (3 Bft) 89,36 %
30.12.2018 08:48 6,4 C 6,1 C 5,6 C 94 % 1030,7 hPa 0,0 l/m 0 min 0 min 5 W/m 9,7 km/h (2 Bft) 91,30 %
30.12.2018 08:50 6,4 C 6,1 C 5,6 C 94 % 1030,8 hPa 0,0 l/m 0 min 0 min 5 W/m 6,4 km/h (2 Bft) 88,89 %
30.12.2018 08:52 6,4 C 6,1 C 5,6 C 94 % 1030,7 hPa 0,0 l/m 0 min 0 min 5 W/m 9,7 km/h (2 Bft) 93,88 %
30.12.2018 08:54 6,4 C 6,1 C 5,6 C 94 % 1030,8 hPa 0,0 l/m 0 min 0 min 7 W/m 12,9 km/h (3 Bft) 95,74 %
30.12.2018 08:56 6,4 C 6,1 C 5,6 C 94 % 1030,7 hPa 0,0 l/m 0 min 0 min 7 W/m 16,1 km/h (3 Bft) 80,00 %
30.12.2018 08:58 6,4 C 6,1 C 5,6 C 94 % 1030,7 hPa 0,0 l/m 0 min 0 min 7 W/m 9,7 km/h (2 Bft) 70,21 %
30.12.2018 09:00 6,4 C 6,1 C 5,6 C 94 % 1030,7 hPa 0,0 l/m 0 min 0 min 8 W/m 9,7 km/h (2 Bft) 74,29 %
30.12.2018 09:02 6,5 C 6,1 C 5,6 C 94 % 1030,7 hPa 0,0 l/m 0 min 0 min 10 W/m 6,4 km/h (2 Bft) 74,14 %
30.12.2018 09:04 6,5 C 6,1 C 5,6 C 94 % 1030,8 hPa 0,0 l/m 0 min 0 min 11 W/m 3,2 km/h (1 Bft) 88,68 %
30.12.2018 09:06 6,5 C 6,1 C 5,6 C 94 % 1030,7 hPa 0,0 l/m 0 min 0 min 12 W/m 0,0 km/h (0 Bft) 82,98 %
30.12.2018 09:08 6,5 C 6,1 C 5,6 C 94 % 1030,8 hPa 0,0 l/m 0 min 0 min 15 W/m 3,2 km/h (1 Bft) 83,33 %
30.12.2018 09:10 6,5 C 6,1 C 5,0 C 94 % 1030,9 hPa 0,0 l/m 0 min 0 min 18 W/m 3,2 km/h (1 Bft) 94,29 %
30.12.2018 09:12 6,5 C 6,1 C 5,0 C 94 % 1030,8 hPa 0,0 l/m 0 min 0 min 19 W/m 3,2 km/h (1 Bft) 93,62 %
30.12.2018 09:14 6,5 C 6,1 C 5,0 C 94 % 1031,1 hPa 0,0 l/m 0 min 0 min 21 W/m 3,2 km/h (1 Bft) 95,74 %
30.12.2018 09:16 6,5 C 6,1 C 5,0 C 94 % 1031,0 hPa 0,0 l/m 0 min 0 min 22 W/m 3,2 km/h (1 Bft) 94,00 %
30.12.2018 09:18 6,5 C 6,1 C 5,0 C 94 % 1031,1 hPa 0,0 l/m 0 min 0 min 23 W/m 3,2 km/h (1 Bft) 95,74 %
30.12.2018 09:20 6,4 C 6,1 C 5,0 C 94 % 1031,0 hPa 0,0 l/m 0 min 0 min 25 W/m 6,4 km/h (2 Bft) 93,62 %
30.12.2018 09:22 6,4 C 6,1 C 5,0 C 94 % 1031,1 hPa 0,0 l/m 0 min 0 min 25 W/m 3,2 km/h (1 Bft) 87,23 %
30.12.2018 09:24 6,4 C 6,1 C 5,0 C 94 % 1031,2 hPa 0,0 l/m 0 min 0 min 28 W/m 6,4 km/h (2 Bft) 97,87 %
30.12.2018 09:26 6,4 C 6,1 C 5,0 C 94 % 1031,1 hPa 0,0 l/m 0 min 0 min 29 W/m 6,4 km/h (2 Bft) 95,74 %
30.12.2018 09:28 6,4 C 6,1 C 5,0 C 94 % 1031,2 hPa 0,0 l/m 0 min 0 min 25 W/m 6,4 km/h (2 Bft) 93,62 %
30.12.2018 09:30 6,4 C 6,1 C 5,0 C 94 % 1031,1 hPa 0,0 l/m 0 min 0 min 27 W/m 3,2 km/h (1 Bft) 85,11 %
30.12.2018 09:32 6,4 C 6,1 C 5,0 C 94 % 1031,2 hPa 0,0 l/m 0 min 0 min 37 W/m 3,2 km/h (1 Bft) 95,74 %
30.12.2018 09:34 6,4 C 6,1 C 5,0 C 94 % 1031,2 hPa 0,0 l/m 0 min 0 min 47 W/m 0,0 km/h (0 Bft) 100,00 %
30.12.2018 09:36 6,4 C 6,1 C 5,0 C 93 % 1031,1 hPa 0,0 l/m 0 min 0 min 51 W/m 0,0 km/h (0 Bft) 100,00 %
30.12.2018 09:38 6,4 C 6,1 C 5,0 C 93 % 1031,1 hPa 0,0 l/m 0 min 0 min 44 W/m 0,0 km/h (0 Bft) 100,00 %
30.12.2018 09:40 6,4 C 6,1 C 5,0 C 93 % 1031,1 hPa 0,0 l/m 0 min 0 min 45 W/m 0,0 km/h (0 Bft) 100,00 %
30.12.2018 09:42 6,4 C 6,1 C 5,0 C 93 % 1031,1 hPa 0,0 l/m 0 min 0 min 42 W/m 0,0 km/h (0 Bft) 100,00 %
30.12.2018 09:44 6,4 C 6,7 C 5,0 C 93 % 1031,1 hPa 0,0 l/m 0 min 0 min 52 W/m 0,0 km/h (0 Bft) 97,87 %
30.12.2018 09:46 6,4 C 6,1 C 5,0 C 93 % 1031,1 hPa 0,0 l/m 0 min 0 min 47 W/m 0,0 km/h (0 Bft) 97,67 %
30.12.2018 09:48 6,4 C 6,7 C 5,6 C 93 % 1031,1 hPa 0,0 l/m 0 min 0 min 50 W/m 0,0 km/h (0 Bft) 100,00 %
30.12.2018 09:50 6,4 C 6,7 C 5,6 C 93 % 1031,2 hPa 0,0 l/m 0 min 0 min 58 W/m 0,0 km/h (0 Bft) 97,96 %
30.12.2018 09:52 6,4 C 6,7 C 5,6 C 93 % 1031,2 hPa 0,0 l/m 0 min 0 min 69 W/m 0,0 km/h (0 Bft) 97,87 %
30.12.2018 09:54 6,4 C 6,7 C 5,6 C 93 % 1031,2 hPa 0,0 l/m 2 min 0 min 75 W/m 0,0 km/h (0 Bft) 100,00 %
30.12.2018 09:56 6,4 C 7,2 C 5,6 C 93 % 1031,3 hPa 0,0 l/m 0 min 0 min 70 W/m 0,0 km/h (0 Bft) 97,87 %
30.12.2018 09:58 6,4 C 7,2 C 5,6 C 93 % 1031,2 hPa 0,0 l/m 2 min 0 min 80 W/m 0,0 km/h (0 Bft) 100,00 %
30.12.2018 10:00 6,4 C 7,2 C 5,6 C 94 % 1031,3 hPa 0,0 l/m 2 min 0 min 89 W/m 0,0 km/h (0 Bft) 100,00 %
30.12.2018 10:02 6,4 C 7,2 C 5,6 C 94 % 1031,3 hPa 0,0 l/m 2 min 0 min 97 W/m 0,0 km/h (0 Bft) 100,00 %
30.12.2018 10:04 6,4 C 7,8 C 6,1 C 94 % 1031,3 hPa 0,0 l/m 2 min 0 min 94 W/m 6,4 km/h (2 Bft) 97,87 %
30.12.2018 10:06 6,4 C 7,8 C 6,1 C 94 % 1031,2 hPa 0,0 l/m 2 min 0 min 93 W/m 3,2 km/h (1 Bft) 97,87 %
30.12.2018 10:08 6,5 C 7,8 C 6,1 C 94 % 1031,3 hPa 0,0 l/m 2 min 0 min 99 W/m 6,4 km/h (2 Bft) 97,87 %
30.12.2018 10:10 6,5 C 8,3 C 6,1 C 94 % 1031,3 hPa 0,0 l/m 2 min 0 min 120 W/m 6,4 km/h (2 Bft) 97,87 %
30.12.2018 10:12 6,6 C 8,3 C 6,1 C 94 % 1031,3 hPa 0,0 l/m 2 min 0 min 156 W/m 6,4 km/h (2 Bft) 100,00 %
30.12.2018 10:14 6,6 C 8,9 C 6,7 C 94 % 1031,2 hPa 0,0 l/m 2 min 0 min 150 W/m 6,4 km/h (2 Bft) 97,87 %
30.12.2018 10:16 6,7 C 9,4 C 6,7 C 94 % 1031,2 hPa 0,0 l/m 2 min 0 min 152 W/m 6,4 km/h (2 Bft) 100,00 %
30.12.2018 10:18 6,7 C 8,9 C 6,7 C 94 % 1031,3 hPa 0,0 l/m 2 min 0 min 138 W/m 6,4 km/h (2 Bft) 100,00 %
30.12.2018 10:20 6,8 C 8,9 C 6,7 C 94 % 1031,3 hPa 0,0 l/m 2 min 0 min 128 W/m 6,4 km/h (2 Bft) 100,00 %
30.12.2018 10:22 6,8 C 8,3 C 6,7 C 94 % 1031,3 hPa 0,0 l/m 2 min 0 min 99 W/m 6,4 km/h (2 Bft) 100,00 %
30.12.2018 10:24 6,9 C 7,8 C 6,7 C 94 % 1031,1 hPa 0,0 l/m 0 min 0 min 80 W/m 9,7 km/h (2 Bft) 97,87 %
30.12.2018 10:26 6,9 C 7,8 C 6,7 C 94 % 1031,1 hPa 0,0 l/m 0 min 0 min 77 W/m 6,4 km/h (2 Bft) 97,87 %
30.12.2018 10:28 6,9 C 7,8 C 6,7 C 94 % 1031,1 hPa 0,0 l/m 0 min 0 min 85 W/m 9,7 km/h (2 Bft) 93,62 %
30.12.2018 10:30 7,0 C 7,8 C 6,7 C 94 % 1031,1 hPa 0,0 l/m 0 min 0 min 84 W/m 9,7 km/h (2 Bft) 97,87 %
30.12.2018 10:32 7,0 C 7,8 C 6,7 C 94 % 1031,2 hPa 0,0 l/m 0 min 0 min 85 W/m 6,4 km/h (2 Bft) 97,87 %
30.12.2018 10:34 7,1 C 7,8 C 6,7 C 94 % 1031,2 hPa 0,0 l/m 0 min 0 min 96 W/m 9,7 km/h (2 Bft) 97,14 %
30.12.2018 10:36 7,1 C 7,8 C 6,7 C 93 % 1031,3 hPa 0,0 l/m 2 min 0 min 109 W/m 9,7 km/h (2 Bft) 96,67 %
30.12.2018 10:38 7,1 C 7,8 C 6,7 C 93 % 1031,4 hPa 0,0 l/m 0 min 0 min 101 W/m 6,4 km/h (2 Bft) 94,87 %
30.12.2018 10:40 7,2 C 7,8 C 6,7 C 93 % 1031,4 hPa 0,0 l/m 0 min 0 min 100 W/m 6,4 km/h (2 Bft) 93,62 %
30.12.2018 10:42 7,2 C 7,8 C 6,7 C 93 % 1031,3 hPa 0,0 l/m 0 min 0 min 100 W/m 9,7 km/h (2 Bft) 96,23 %
30.12.2018 10:44 7,2 C 7,8 C 6,7 C 93 % 1031,4 hPa 0,0 l/m 0 min 0 min 96 W/m 9,7 km/h (2 Bft) 97,87 %
30.12.2018 10:46 7,2 C 7,8 C 6,7 C 93 % 1031,4 hPa 0,0 l/m 0 min 0 min 98 W/m 9,7 km/h (2 Bft) 95,65 %
30.12.2018 10:48 7,3 C 7,8 C 6,7 C 93 % 1031,4 hPa 0,0 l/m 0 min 0 min 96 W/m 6,4 km/h (2 Bft) 94,44 %
30.12.2018 10:50 7,3 C 7,8 C 6,7 C 93 % 1031,4 hPa 0,0 l/m 0 min 0 min 88 W/m 6,4 km/h (2 Bft) 98,00 %
30.12.2018 10:52 7,3 C 7,8 C 6,7 C 93 % 1031,5 hPa 0,0 l/m 0 min 0 min 77 W/m 6,4 km/h (2 Bft) 97,87 %
30.12.2018 10:54 7,3 C 7,8 C 6,7 C 93 % 1031,5 hPa 0,0 l/m 0 min 0 min 73 W/m 6,4 km/h (2 Bft) 95,92 %
30.12.2018 10:56 7,3 C 7,8 C 6,7 C 93 % 1031,5 hPa 0,0 l/m 0 min 0 min 76 W/m 6,4 km/h (2 Bft) 93,62 %
30.12.2018 10:58 7,3 C 7,8 C 6,7 C 93 % 1031,6 hPa 0,0 l/m 0 min 0 min 77 W/m 12,9 km/h (3 Bft) 95,24 %
30.12.2018 11:00 7,4 C 7,8 C 6,7 C 93 % 1031,6 hPa 0,0 l/m 0 min 0 min 74 W/m 9,7 km/h (2 Bft) 93,48 %
30.12.2018 11:02 7,4 C 7,8 C 6,7 C 92 % 1031,7 hPa 0,0 l/m 0 min 0 min 75 W/m 9,7 km/h (2 Bft) 95,74 %
30.12.2018 11:04 7,4 C 7,2 C 6,7 C 92 % 1031,8 hPa 0,0 l/m 0 min 0 min 81 W/m 9,7 km/h (2 Bft) 91,49 %
30.12.2018 11:06 7,4 C 7,8 C 6,7 C 92 % 1031,7 hPa 0,0 l/m 0 min 0 min 91 W/m 9,7 km/h (2 Bft) 94,92 %
30.12.2018 11:08 7,4 C 7,8 C 6,7 C 92 % 1031,7 hPa 0,0 l/m 0 min 0 min 90 W/m 9,7 km/h (2 Bft) 97,22 %
30.12.2018 11:10 7,4 C 7,8 C 6,7 C 92 % 1031,7 hPa 0,0 l/m 0 min 0 min 92 W/m 6,4 km/h (2 Bft) 93,62 %
30.12.2018 11:12 7,4 C 7,8 C 6,7 C 92 % 1031,7 hPa 0,0 l/m 0 min 0 min 91 W/m 6,4 km/h (2 Bft) 97,83 %
30.12.2018 11:14 7,4 C 7,8 C 6,7 C 92 % 1031,9 hPa 0,0 l/m 0 min 0 min 96 W/m 9,7 km/h (2 Bft) 93,62 %
30.12.2018 11:16 7,4 C 7,8 C 6,7 C 92 % 1031,8 hPa 0,0 l/m 0 min 0 min 104 W/m 6,4 km/h (2 Bft) 97,92 %
30.12.2018 11:18 7,4 C 7,8 C 6,7 C 92 % 1031,7 hPa 0,0 l/m 0 min 0 min 117 W/m 6,4 km/h (2 Bft) 98,00 %
30.12.2018 11:20 7,5 C 7,8 C 7,2 C 92 % 1031,7 hPa 0,0 l/m 0 min 0 min 123 W/m 6,4 km/h (2 Bft) 97,87 %
30.12.2018 11:22 7,5 C 8,3 C 7,2 C 92 % 1031,7 hPa 0,0 l/m 0 min 0 min 127 W/m 6,4 km/h (2 Bft) 97,83 %
30.12.2018 11:24 7,6 C 8,3 C 7,2 C 92 % 1031,8 hPa 0,0 l/m 0 min 0 min 119 W/m 12,9 km/h (3 Bft) 95,74 %
30.12.2018 11:26 7,6 C 8,3 C 7,2 C 92 % 1031,8 hPa 0,0 l/m 0 min 0 min 108 W/m 9,7 km/h (2 Bft) 95,74 %
30.12.2018 11:28 7,6 C 7,8 C 7,2 C 92 % 1031,9 hPa 0,0 l/m 0 min 0 min 111 W/m 9,7 km/h (2 Bft) 97,87 %
30.12.2018 11:30 7,6 C 7,8 C 7,2 C 92 % 1031,8 hPa 0,0 l/m 0 min 0 min 109 W/m 6,4 km/h (2 Bft) 95,74 %
30.12.2018 11:32 7,6 C 7,8 C 7,2 C 92 % 1031,9 hPa 0,0 l/m 0 min 0 min 100 W/m 9,7 km/h (2 Bft) 100,00 %
30.12.2018 11:34 7,6 C 7,8 C 7,2 C 91 % 1031,8 hPa 0,0 l/m 0 min 0 min 96 W/m 9,7 km/h (2 Bft) 95,92 %
30.12.2018 11:36 7,7 C 7,8 C 7,2 C 91 % 1031,9 hPa 0,0 l/m 0 min 0 min 88 W/m 9,7 km/h (2 Bft) 97,96 %
30.12.2018 11:38 7,7 C 7,8 C 7,2 C 91 % 1031,9 hPa 0,0 l/m 0 min 0 min 81 W/m 6,4 km/h (2 Bft) 97,87 %
30.12.2018 11:40 7,7 C 7,8 C 6,7 C 91 % 1031,9 hPa 0,0 l/m 0 min 0 min 76 W/m 6,4 km/h (2 Bft) 97,87 %
30.12.2018 11:42 7,7 C 7,8 C 6,7 C 91 % 1031,8 hPa 0,0 l/m 0 min 0 min 75 W/m 9,7 km/h (2 Bft) 100,00 %
30.12.2018 11:44 7,7 C 7,8 C 6,7 C 91 % 1031,8 hPa 0,0 l/m 0 min 0 min 79 W/m 6,4 km/h (2 Bft) 97,87 %
30.12.2018 11:46 7,7 C 7,8 C 6,7 C 91 % 1031,7 hPa 0,0 l/m 0 min 0 min 88 W/m 6,4 km/h (2 Bft) 93,48 %
30.12.2018 11:48 7,7 C 7,8 C 6,7 C 91 % 1031,7 hPa 0,0 l/m 0 min 0 min 89 W/m 9,7 km/h (2 Bft) 100,00 %
30.12.2018 11:50 7,7 C 7,8 C 6,7 C 91 % 1031,7 hPa 0,0 l/m 0 min 0 min 91 W/m 6,4 km/h (2 Bft) 100,00 %
30.12.2018 11:52 7,7 C 7,8 C 7,2 C 91 % 1031,7 hPa 0,0 l/m 0 min 0 min 111 W/m 6,4 km/h (2 Bft) 100,00 %
30.12.2018 11:54 7,7 C 7,8 C 7,2 C 91 % 1031,8 hPa 0,0 l/m 0 min 0 min 127 W/m 9,7 km/h (2 Bft) 95,74 %
30.12.2018 11:56 7,7 C 7,8 C 7,2 C 91 % 1031,7 hPa 0,0 l/m 0 min 0 min 133 W/m 9,7 km/h (2 Bft) 97,83 %
30.12.2018 11:58 7,7 C 8,3 C 7,2 C 91 % 1031,5 hPa 0,0 l/m 2 min 0 min 148 W/m 9,7 km/h (2 Bft) 97,87 %
30.12.2018 12:00 7,7 C 8,3 C 7,2 C 91 % 1031,5 hPa 0,0 l/m 2 min 0 min 170 W/m 6,4 km/h (2 Bft) 95,74 %
30.12.2018 12:02 7,7 C 8,3 C 7,2 C 91 % 1031,6 hPa 0,0 l/m 2 min 0 min 164 W/m 12,9 km/h (3 Bft) 97,67 %
30.12.2018 12:04 7,8 C 8,3 C 7,2 C 91 % 1031,6 hPa 0,0 l/m 2 min 0 min 149 W/m 9,7 km/h (2 Bft) 97,87 %
30.12.2018 12:08 7,8 C 8,3 C 7,2 C 91 % 1031,6 hPa 0,0 l/m 0 min 0 min 127 W/m 12,9 km/h (3 Bft) 96,81 %
30.12.2018 12:10 7,8 C 8,3 C 7,2 C 91 % 1031,3 hPa 0,0 l/m 0 min 0 min 123 W/m 9,7 km/h (2 Bft) 97,83 %
30.12.2018 12:12 7,8 C 8,3 C 7,2 C 91 % 1031,2 hPa 0,0 l/m 0 min 0 min 111 W/m 16,1 km/h (3 Bft) 97,87 %
30.12.2018 12:14 7,8 C 7,8 C 7,2 C 91 % 1031,3 hPa 0,0 l/m 0 min 0 min 85 W/m 12,9 km/h (3 Bft) 98,00 %
30.12.2018 12:16 7,9 C 7,8 C 7,2 C 90 % 1031,2 hPa 0,0 l/m 0 min 0 min 80 W/m 9,7 km/h (2 Bft) 97,87 %
30.12.2018 12:18 7,9 C 7,8 C 7,2 C 90 % 1031,4 hPa 0,0 l/m 0 min 0 min 81 W/m 9,7 km/h (2 Bft) 97,92 %
30.12.2018 12:20 7,9 C 7,8 C 7,2 C 90 % 1031,3 hPa 0,0 l/m 0 min 0 min 87 W/m 6,4 km/h (2 Bft) 97,83 %
30.12.2018 12:22 7,9 C 7,8 C 7,2 C 90 % 1031,4 hPa 0,0 l/m 0 min 0 min 89 W/m 12,9 km/h (3 Bft) 97,87 %
30.12.2018 12:24 7,9 C 7,8 C 7,2 C 90 % 1031,5 hPa 0,0 l/m 0 min 0 min 82 W/m 6,4 km/h (2 Bft) 97,87 %
30.12.2018 12:26 7,9 C 7,8 C 7,2 C 90 % 1031,6 hPa 0,0 l/m 0 min 0 min 70 W/m 6,4 km/h (2 Bft) 97,87 %
30.12.2018 12:28 7,9 C 7,8 C 7,2 C 90 % 1031,6 hPa 0,0 l/m 0 min 0 min 66 W/m 6,4 km/h (2 Bft) 97,87 %
30.12.2018 12:30 7,9 C 7,8 C 7,2 C 90 % 1031,5 hPa 0,0 l/m 0 min 0 min 77 W/m 9,7 km/h (2 Bft) 95,35 %
30.12.2018 12:32 7,9 C 7,8 C 7,2 C 90 % 1031,5 hPa 0,0 l/m 0 min 0 min 61 W/m 9,7 km/h (2 Bft) 93,62 %
30.12.2018 12:34 7,9 C 7,8 C 7,2 C 90 % 1031,2 hPa 0,0 l/m 0 min 0 min 55 W/m 6,4 km/h (2 Bft) 97,83 %
30.12.2018 12:36 7,9 C 7,8 C 7,2 C 90 % 1031,4 hPa 0,0 l/m 0 min 0 min 64 W/m 9,7 km/h (2 Bft) 98,04 %
30.12.2018 12:38 7,9 C 7,8 C 7,2 C 90 % 1031,4 hPa 0,0 l/m 0 min 0 min 59 W/m 6,4 km/h (2 Bft) 97,87 %
30.12.2018 12:40 7,9 C 7,8 C 7,2 C 90 % 1031,2 hPa 0,0 l/m 0 min 0 min 58 W/m 6,4 km/h (2 Bft) 97,87 %
30.12.2018 12:42 7,9 C 7,8 C 7,2 C 90 % 1031,2 hPa 0,0 l/m 0 min 0 min 68 W/m 9,7 km/h (2 Bft) 95,74 %
30.12.2018 12:44 7,9 C 7,8 C 7,2 C 90 % 1031,3 hPa 0,0 l/m 0 min 0 min 72 W/m 9,7 km/h (2 Bft) 97,83 %
30.12.2018 12:46 7,9 C 7,8 C 7,2 C 90 % 1031,2 hPa 0,0 l/m 0 min 0 min 73 W/m 9,7 km/h (2 Bft) 97,87 %
30.12.2018 12:48 7,9 C 7,8 C 7,2 C 90 % 1031,2 hPa 0,0 l/m 0 min 0 min 76 W/m 6,4 km/h (2 Bft) 97,87 %
30.12.2018 12:50 7,9 C 7,8 C 7,2 C 90 % 1031,2 hPa 0,0 l/m 0 min 0 min 64 W/m 12,9 km/h (3 Bft) 97,87 %
30.12.2018 12:52 7,9 C 7,8 C 7,2 C 90 % 1031,2 hPa 0,0 l/m 0 min 0 min 67 W/m 12,9 km/h (3 Bft) 97,87 %
30.12.2018 12:54 7,9 C 7,8 C 7,2 C 90 % 1031,2 hPa 0,0 l/m 0 min 0 min 86 W/m 9,7 km/h (2 Bft) 97,87 %
30.12.2018 12:56 7,9 C 7,8 C 7,2 C 90 % 1031,2 hPa 0,0 l/m 0 min 0 min 92 W/m 9,7 km/h (2 Bft) 95,65 %
30.12.2018 12:58 7,9 C 7,8 C 7,2 C 90 % 1031,1 hPa 0,0 l/m 0 min 0 min 84 W/m 9,7 km/h (2 Bft) 95,74 %
30.12.2018 13:00 7,9 C 7,8 C 7,2 C 90 % 1031,2 hPa 0,0 l/m 0 min 0 min 79 W/m 9,7 km/h (2 Bft) 95,74 %
30.12.2018 13:02 7,9 C 7,8 C 7,2 C 90 % 1031,1 hPa 0,0 l/m 0 min 0 min 80 W/m 9,7 km/h (2 Bft) 97,87 %
30.12.2018 13:04 7,9 C 7,8 C 7,2 C 90 % 1031,2 hPa 0,0 l/m 0 min 0 min 76 W/m 9,7 km/h (2 Bft) 100,00 %
30.12.2018 13:06 7,9 C 7,8 C 7,2 C 90 % 1031,2 hPa 0,0 l/m 0 min 0 min 66 W/m 12,9 km/h (3 Bft) 100,00 %
30.12.2018 13:08 7,9 C 7,8 C 7,2 C 90 % 1031,2 hPa 0,0 l/m 0 min 0 min 57 W/m 6,4 km/h (2 Bft) 100,00 %
30.12.2018 13:10 7,9 C 7,8 C 7,2 C 90 % 1031,1 hPa 0,0 l/m 0 min 0 min 54 W/m 9,7 km/h (2 Bft) 100,00 %
30.12.2018 13:12 7,9 C 7,8 C 7,2 C 90 % 1031,2 hPa 0,0 l/m 0 min 0 min 53 W/m 9,7 km/h (2 Bft) 97,87 %
30.12.2018 13:14 7,9 C 7,8 C 7,2 C 90 % 1031,1 hPa 0,0 l/m 0 min 0 min 56 W/m 9,7 km/h (2 Bft) 93,62 %
30.12.2018 13:16 7,9 C 7,8 C 7,2 C 90 % 1031,2 hPa 0,0 l/m 0 min 0 min 68 W/m 6,4 km/h (2 Bft) 93,62 %
30.12.2018 13:18 7,9 C 7,8 C 7,2 C 90 % 1031,2 hPa 0,0 l/m 0 min 0 min 76 W/m 9,7 km/h (2 Bft) 94,00 %
30.12.2018 13:20 7,9 C 7,8 C 7,2 C 90 % 1031,2 hPa 0,0 l/m 0 min 0 min 83 W/m 9,7 km/h (2 Bft) 93,48 %
30.12.2018 13:22 7,9 C 7,8 C 7,2 C 90 % 1031,1 hPa 0,0 l/m 0 min 0 min 77 W/m 9,7 km/h (2 Bft) 95,74 %
30.12.2018 13:24 7,9 C 7,8 C 7,2 C 90 % 1031,1 hPa 0,0 l/m 0 min 0 min 69 W/m 6,4 km/h (2 Bft) 93,75 %
30.12.2018 13:26 7,9 C 7,8 C 7,2 C 90 % 1031,0 hPa 0,0 l/m 0 min 0 min 68 W/m 9,7 km/h (2 Bft) 82,98 %
30.12.2018 13:28 7,9 C 7,8 C 7,2 C 90 % 1031,0 hPa 0,0 l/m 0 min 0 min 64 W/m 6,4 km/h (2 Bft) 86,05 %
30.12.2018 13:30 7,9 C 7,8 C 7,2 C 90 % 1031,1 hPa 0,0 l/m 0 min 0 min 56 W/m 16,1 km/h (3 Bft) 84,00 %
30.12.2018 13:32 7,9 C 7,8 C 7,2 C 90 % 1031,0 hPa 0,0 l/m 0 min 0 min 61 W/m 9,7 km/h (2 Bft) 78,26 %
30.12.2018 13:34 7,9 C 7,8 C 7,2 C 90 % 1031,0 hPa 0,0 l/m 0 min 0 min 69 W/m 12,9 km/h (3 Bft) 74,47 %
30.12.2018 13:36 7,9 C 7,8 C 7,2 C 90 % 1031,0 hPa 0,0 l/m 0 min 0 min 73 W/m 12,9 km/h (3 Bft) 72,34 %
30.12.2018 13:38 7,9 C 7,8 C 7,2 C 90 % 1030,9 hPa 0,0 l/m 0 min 0 min 74 W/m 6,4 km/h (2 Bft) 74,47 %
30.12.2018 13:40 7,9 C 7,8 C 7,2 C 90 % 1030,8 hPa 0,0 l/m 0 min 0 min 80 W/m 6,4 km/h (2 Bft) 80,85 %
30.12.2018 13:42 8,0 C 7,8 C 7,2 C 90 % 1030,8 hPa 0,0 l/m 0 min 0 min 88 W/m 6,4 km/h (2 Bft) 72,34 %
30.12.2018 13:44 8,0 C 7,8 C 7,2 C 90 % 1030,9 hPa 0,0 l/m 0 min 0 min 90 W/m 6,4 km/h (2 Bft) 73,91 %
30.12.2018 13:46 8,0 C 7,8 C 7,2 C 90 % 1030,9 hPa 0,0 l/m 0 min 0 min 86 W/m 9,7 km/h (2 Bft) 77,08 %
30.12.2018 13:48 8,0 C 7,8 C 7,2 C 91 % 1030,9 hPa 0,0 l/m 0 min 0 min 82 W/m 9,7 km/h (2 Bft) 82,98 %
30.12.2018 13:50 8,1 C 7,8 C 7,2 C 91 % 1031,0 hPa 0,0 l/m 0 min 0 min 78 W/m 6,4 km/h (2 Bft) 76,60 %
30.12.2018 13:52 8,0 C 7,8 C 7,2 C 91 % 1031,1 hPa 0,0 l/m 0 min 0 min 73 W/m 9,7 km/h (2 Bft) 68,09 %
30.12.2018 13:54 8,1 C 7,8 C 7,2 C 91 % 1031,1 hPa 0,0 l/m 0 min 0 min 75 W/m 12,9 km/h (3 Bft) 80,43 %
30.12.2018 13:56 8,1 C 7,8 C 7,2 C 91 % 1031,0 hPa 0,0 l/m 0 min 0 min 71 W/m 19,3 km/h (3 Bft) 74,47 %
30.12.2018 13:58 8,1 C 7,8 C 7,2 C 91 % 1031,1 hPa 0,0 l/m 0 min 0 min 73 W/m 6,4 km/h (2 Bft) 79,07 %
30.12.2018 14:00 8,1 C 7,8 C 7,2 C 91 % 1031,0 hPa 0,0 l/m 0 min 0 min 87 W/m 6,4 km/h (2 Bft) 72,00 %
30.12.2018 14:02 8,1 C 7,8 C 7,2 C 90 % 1031,1 hPa 0,0 l/m 0 min 0 min 94 W/m 9,7 km/h (2 Bft) 85,11 %
30.12.2018 14:04 8,1 C 7,8 C 7,2 C 90 % 1031,1 hPa 0,0 l/m 0 min 0 min 89 W/m 9,7 km/h (2 Bft) 72,34 %
30.12.2018 14:06 8,1 C 8,3 C 7,2 C 90 % 1030,8 hPa 0,0 l/m 0 min 0 min 88 W/m 9,7 km/h (2 Bft) 78,72 %
30.12.2018 14:08 8,1 C 8,3 C 7,2 C 90 % 1030,9 hPa 0,0 l/m 0 min 0 min 87 W/m 6,4 km/h (2 Bft) 76,60 %
30.12.2018 14:10 8,1 C 7,8 C 7,2 C 90 % 1030,8 hPa 0,0 l/m 0 min 0 min 78 W/m 16,1 km/h (3 Bft) 74,47 %
30.12.2018 14:12 8,1 C 7,8 C 7,2 C 90 % 1030,8 hPa 0,0 l/m 0 min 0 min 71 W/m 12,9 km/h (3 Bft) 80,85 %
30.12.2018 14:14 8,1 C 7,8 C 7,2 C 90 % 1030,8 hPa 0,0 l/m 0 min 0 min 71 W/m 6,4 km/h (2 Bft) 70,21 %
30.12.2018 14:16 8,1 C 7,8 C 7,2 C 90 % 1030,8 hPa 0,0 l/m 0 min 0 min 74 W/m 9,7 km/h (2 Bft) 80,43 %
30.12.2018 14:18 8,1 C 7,8 C 7,2 C 90 % 1030,8 hPa 0,0 l/m 0 min 0 min 71 W/m 9,7 km/h (2 Bft) 76,74 %
30.12.2018 14:20 8,1 C 7,8 C 7,2 C 90 % 1030,7 hPa 0,0 l/m 0 min 0 min 66 W/m 12,9 km/h (3 Bft) 82,00 %
30.12.2018 14:22 8,1 C 7,8 C 7,2 C 90 % 1030,7 hPa 0,0 l/m 0 min 0 min 72 W/m 9,7 km/h (2 Bft) 91,49 %
30.12.2018 14:24 8,1 C 7,8 C 7,2 C 90 % 1030,8 hPa 0,0 l/m 0 min 0 min 76 W/m 9,7 km/h (2 Bft) 89,36 %
30.12.2018 14:26 8,1 C 7,8 C 7,2 C 90 % 1030,7 hPa 0,0 l/m 0 min 0 min 69 W/m 9,7 km/h (2 Bft) 97,87 %
30.12.2018 14:28 8,1 C 7,8 C 7,2 C 90 % 1030,7 hPa 0,0 l/m 0 min 0 min 55 W/m 9,7 km/h (2 Bft) 95,74 %
30.12.2018 14:30 8,1 C 7,8 C 7,2 C 90 % 1030,7 hPa 0,0 l/m 0 min 0 min 49 W/m 9,7 km/h (2 Bft) 91,49 %
30.12.2018 14:32 8,1 C 7,8 C 7,2 C 90 % 1030,7 hPa 0,0 l/m 0 min 0 min 42 W/m 12,9 km/h (3 Bft) 97,87 %
30.12.2018 14:34 8,1 C 7,8 C 7,2 C 90 % 1030,7 hPa 0,0 l/m 0 min 0 min 35 W/m 6,4 km/h (2 Bft) 85,11 %
30.12.2018 14:36 8,1 C 7,8 C 7,2 C 90 % 1030,7 hPa 0,0 l/m 0 min 0 min 30 W/m 6,4 km/h (2 Bft) 95,74 %
30.12.2018 14:38 8,1 C 7,8 C 7,2 C 90 % 1030,7 hPa 0,0 l/m 0 min 0 min 30 W/m 16,1 km/h (3 Bft) 91,49 %
30.12.2018 14:40 8,1 C 7,8 C 7,2 C 90 % 1030,8 hPa 0,0 l/m 0 min 0 min 30 W/m 9,7 km/h (2 Bft) 97,83 %
30.12.2018 14:42 8,1 C 7,8 C 7,2 C 90 % 1030,8 hPa 0,0 l/m 0 min 0 min 30 W/m 9,7 km/h (2 Bft) 100,00 %
30.12.2018 14:44 8,0 C 7,8 C 7,2 C 90 % 1031,0 hPa 0,0 l/m 0 min 0 min 32 W/m 6,4 km/h (2 Bft) 100,00 %
30.12.2018 14:46 8,0 C 7,8 C 6,7 C 90 % 1031,0 hPa 0,0 l/m 0 min 0 min 30 W/m 6,4 km/h (2 Bft) 97,87 %
30.12.2018 14:48 8,0 C 7,8 C 6,7 C 90 % 1031,1 hPa 0,0 l/m 0 min 0 min 26 W/m 6,4 km/h (2 Bft) 97,87 %
30.12.2018 14:50 8,0 C 7,8 C 6,7 C 90 % 1031,0 hPa 0,0 l/m 0 min 0 min 26 W/m 6,4 km/h (2 Bft) 95,74 %
30.12.2018 14:52 8,0 C 7,2 C 6,7 C 90 % 1031,0 hPa 0,0 l/m 0 min 0 min 26 W/m 6,4 km/h (2 Bft) 100,00 %
30.12.2018 14:54 8,0 C 7,2 C 6,7 C 90 % 1031,0 hPa 0,0 l/m 0 min 0 min 26 W/m 6,4 km/h (2 Bft) 95,74 %
30.12.2018 14:56 8,0 C 7,2 C 6,7 C 90 % 1031,0 hPa 0,0 l/m 0 min 0 min 23 W/m 9,7 km/h (2 Bft) 97,87 %
30.12.2018 14:58 8,0 C 7,2 C 6,7 C 90 % 1031,0 hPa 0,0 l/m 0 min 0 min 21 W/m 6,4 km/h (2 Bft) 95,74 %
30.12.2018 15:00 8,0 C 7,2 C 6,7 C 90 % 1031,0 hPa 0,0 l/m 0 min 0 min 21 W/m 6,4 km/h (2 Bft) 97,87 %
30.12.2018 15:02 7,9 C 7,2 C 6,7 C 90 % 1031,0 hPa 0,0 l/m 0 min 0 min 19 W/m 9,7 km/h (2 Bft) 95,74 %
30.12.2018 15:04 7,9 C 7,2 C 6,7 C 90 % 1031,0 hPa 0,0 l/m 0 min 0 min 18 W/m 12,9 km/h (3 Bft) 84,78 %
30.12.2018 15:06 7,9 C 7,2 C 6,7 C 90 % 1031,0 hPa 0,0 l/m 0 min 0 min 19 W/m 9,7 km/h (2 Bft) 85,11 %
30.12.2018 15:08 7,9 C 7,2 C 6,7 C 90 % 1031,0 hPa 0,0 l/m 0 min 0 min 20 W/m 6,4 km/h (2 Bft) 74,47 %
30.12.2018 15:10 7,9 C 7,2 C 6,7 C 90 % 1030,9 hPa 0,0 l/m 0 min 0 min 22 W/m 6,4 km/h (2 Bft) 78,72 %
30.12.2018 15:12 7,9 C 7,2 C 6,7 C 90 % 1031,0 hPa 0,0 l/m 0 min 0 min 23 W/m 6,4 km/h (2 Bft) 74,47 %
30.12.2018 15:14 7,9 C 7,2 C 6,7 C 90 % 1031,1 hPa 0,0 l/m 0 min 0 min 19 W/m 9,7 km/h (2 Bft) 72,09 %
30.12.2018 15:16 7,9 C 7,2 C 6,7 C 90 % 1031,0 hPa 0,0 l/m 0 min 0 min 18 W/m 9,7 km/h (2 Bft) 76,60 %
30.12.2018 15:18 7,9 C 7,2 C 6,7 C 90 % 1031,1 hPa 0,0 l/m 0 min 0 min 18 W/m 6,4 km/h (2 Bft) 85,71 %
30.12.2018 15:20 7,9 C 7,2 C 6,7 C 90 % 1031,1 hPa 0,0 l/m 0 min 0 min 18 W/m 9,7 km/h (2 Bft) 76,60 %
30.12.2018 15:22 7,9 C 7,2 C 6,7 C 90 % 1031,2 hPa 0,0 l/m 0 min 0 min 16 W/m 6,4 km/h (2 Bft) 78,72 %
30.12.2018 15:24 7,9 C 7,2 C 6,7 C 90 % 1031,2 hPa 0,0 l/m 0 min 0 min 13 W/m 9,7 km/h (2 Bft) 78,72 %
30.12.2018 15:26 7,9 C 7,2 C 6,7 C 90 % 1031,2 hPa 0,0 l/m 0 min 0 min 12 W/m 9,7 km/h (2 Bft) 85,11 %
30.12.2018 15:28 7,9 C 7,2 C 6,7 C 90 % 1031,2 hPa 0,0 l/m 0 min 0 min 11 W/m 6,4 km/h (2 Bft) 85,11 %
30.12.2018 15:30 7,9 C 7,2 C 6,7 C 90 % 1031,1 hPa 0,0 l/m 0 min 0 min 11 W/m 6,4 km/h (2 Bft) 89,13 %
30.12.2018 15:32 7,8 C 7,2 C 6,7 C 90 % 1031,0 hPa 0,0 l/m 0 min 0 min 11 W/m 6,4 km/h (2 Bft) 85,11 %
30.12.2018 15:34 7,8 C 7,2 C 6,7 C 90 % 1031,0 hPa 0,0 l/m 0 min 0 min 12 W/m 9,7 km/h (2 Bft) 87,23 %
30.12.2018 15:36 7,8 C 7,2 C 6,7 C 90 % 1030,9 hPa 0,0 l/m 0 min 0 min 14 W/m 6,4 km/h (2 Bft) 87,23 %
30.12.2018 15:38 7,8 C 7,2 C 6,7 C 90 % 1030,9 hPa 0,0 l/m 0 min 0 min 18 W/m 9,7 km/h (2 Bft) 87,23 %
30.12.2018 15:40 7,8 C 7,2 C 6,7 C 90 % 1030,8 hPa 0,0 l/m 0 min 0 min 19 W/m 9,7 km/h (2 Bft) 80,43 %
30.12.2018 15:42 7,8 C 7,2 C 6,7 C 90 % 1030,8 hPa 0,0 l/m 0 min 0 min 18 W/m 9,7 km/h (2 Bft) 80,85 %
30.12.2018 15:44 7,8 C 7,2 C 6,7 C 90 % 1030,8 hPa 0,0 l/m 0 min 0 min 17 W/m 6,4 km/h (2 Bft) 80,85 %
30.12.2018 15:46 7,8 C 6,7 C 6,7 C 90 % 1030,7 hPa 0,0 l/m 0 min 0 min 14 W/m 9,7 km/h (2 Bft) 80,85 %
30.12.2018 15:48 7,8 C 6,7 C 6,1 C 90 % 1030,7 hPa 0,0 l/m 0 min 0 min 14 W/m 6,4 km/h (2 Bft) 74,47 %
30.12.2018 15:50 7,8 C 6,7 C 6,1 C 90 % 1030,7 hPa 0,0 l/m 0 min 0 min 14 W/m 16,1 km/h (3 Bft) 87,23 %
30.12.2018 15:52 7,8 C 6,7 C 6,1 C 90 % 1030,7 hPa 0,0 l/m 0 min 0 min 16 W/m 9,7 km/h (2 Bft) 95,65 %
30.12.2018 15:54 7,8 C 6,7 C 6,1 C 90 % 1030,7 hPa 0,0 l/m 0 min 0 min 18 W/m 9,7 km/h (2 Bft) 89,36 %
30.12.2018 15:56 7,8 C 6,7 C 6,1 C 90 % 1030,7 hPa 0,0 l/m 0 min 0 min 18 W/m 6,4 km/h (2 Bft) 91,67 %
30.12.2018 15:58 7,8 C 6,7 C 6,1 C 90 % 1030,6 hPa 0,0 l/m 0 min 0 min 18 W/m 12,9 km/h (3 Bft) 89,36 %
30.12.2018 16:00 7,8 C 6,7 C 6,1 C 91 % 1030,6 hPa 0,0 l/m 0 min 0 min 18 W/m 6,4 km/h (2 Bft) 95,35 %
30.12.2018 16:02 7,8 C 6,7 C 6,7 C 91 % 1030,6 hPa 0,0 l/m 0 min 0 min 17 W/m 12,9 km/h (3 Bft) 90,00 %
30.12.2018 16:04 7,8 C 6,7 C 6,7 C 91 % 1030,7 hPa 0,0 l/m 0 min 0 min 15 W/m 16,1 km/h (3 Bft) 95,74 %
30.12.2018 16:06 7,7 C 6,7 C 6,7 C 91 % 1030,8 hPa 0,0 l/m 0 min 0 min 13 W/m 6,4 km/h (2 Bft) 85,11 %
30.12.2018 16:08 7,7 C 7,2 C 6,7 C 91 % 1030,8 hPa 0,0 l/m 0 min 0 min 11 W/m 12,9 km/h (3 Bft) 95,74 %
30.12.2018 16:10 7,7 C 7,2 C 6,7 C 91 % 1030,8 hPa 0,0 l/m 0 min 0 min 9 W/m 6,4 km/h (2 Bft) 89,36 %
30.12.2018 16:12 7,7 C 7,2 C 6,7 C 91 % 1030,9 hPa 0,0 l/m 0 min 0 min 6 W/m 6,4 km/h (2 Bft) 89,36 %
30.12.2018 16:14 7,7 C 7,2 C 6,7 C 91 % 1030,9 hPa 0,0 l/m 0 min 0 min 5 W/m 6,4 km/h (2 Bft) 89,13 %
30.12.2018 16:16 7,7 C 7,2 C 6,7 C 91 % 1031,0 hPa 0,0 l/m 0 min 0 min 0 W/m 3,2 km/h (1 Bft) 85,11 %
30.12.2018 16:18 7,7 C 7,2 C 6,7 C 91 % 1031,0 hPa 0,0 l/m 0 min 0 min 0 W/m 9,7 km/h (2 Bft) 93,62 %
30.12.2018 16:20 7,7 C 7,2 C 6,7 C 91 % 1031,0 hPa 0,0 l/m 0 min 0 min 0 W/m 9,7 km/h (2 Bft) 87,23 %
30.12.2018 16:22 7,7 C 7,2 C 6,7 C 91 % 1030,9 hPa 0,0 l/m 0 min 0 min 0 W/m 9,7 km/h (2 Bft) 82,98 %
30.12.2018 16:24 7,7 C 7,2 C 6,7 C 91 % 1030,8 hPa 0,0 l/m 0 min 0 min 0 W/m 9,7 km/h (2 Bft) 90,70 %
30.12.2018 16:26 7,7 C 7,2 C 6,7 C 91 % 1030,8 hPa 0,0 l/m 0 min 0 min 0 W/m 12,9 km/h (3 Bft) 80,00 %
30.12.2018 16:28 7,7 C 7,2 C 6,7 C 91 % 1030,8 hPa 0,0 l/m 0 min 0 min 0 W/m 9,7 km/h (2 Bft) 80,43 %
30.12.2018 16:30 7,7 C 7,2 C 6,7 C 91 % 1030,8 hPa 0,0 l/m 0 min 0 min 0 W/m 12,9 km/h (3 Bft) 79,17 %
30.12.2018 16:32 7,6 C 7,2 C 6,7 C 91 % 1030,7 hPa 0,0 l/m 0 min 0 min 0 W/m 9,7 km/h (2 Bft) 93,62 %
30.12.2018 16:34 7,6 C 6,7 C 6,7 C 91 % 1030,7 hPa 0,0 l/m 0 min 0 min 0 W/m 12,9 km/h (3 Bft) 97,87 %
30.12.2018 16:36 7,6 C 6,7 C 6,1 C 91 % 1030,7 hPa 0,0 l/m 0 min 0 min 0 W/m 9,7 km/h (2 Bft) 95,65 %
30.12.2018 16:38 7,6 C 6,7 C 6,1 C 91 % 1030,7 hPa 0,0 l/m 0 min 0 min 0 W/m 12,9 km/h (3 Bft) 95,74 %
30.12.2018 16:40 7,6 C 6,7 C 6,1 C 91 % 1030,7 hPa 0,0 l/m 0 min 0 min 0 W/m 6,4 km/h (2 Bft) 95,74 %
30.12.2018 16:42 7,6 C 6,7 C 6,1 C 91 % 1030,7 hPa 0,0 l/m 0 min 0 min 0 W/m 9,7 km/h (2 Bft) 93,62 %
30.12.2018 16:44 7,6 C 6,1 C 6,1 C 91 % 1030,6 hPa 0,0 l/m 0 min 0 min 0 W/m 9,7 km/h (2 Bft) 97,87 %
30.12.2018 16:46 7,6 C 6,1 C 5,6 C 91 % 1030,6 hPa 0,0 l/m 0 min 0 min 0 W/m 9,7 km/h (2 Bft) 97,87 %
30.12.2018 16:48 7,6 C 6,1 C 5,6 C 91 % 1030,6 hPa 0,0 l/m 0 min 0 min 0 W/m 16,1 km/h (3 Bft) 97,67 %
30.12.2018 16:50 7,6 C 6,1 C 5,6 C 91 % 1030,7 hPa 0,0 l/m 0 min 0 min 0 W/m 16,1 km/h (3 Bft) 97,96 %
30.12.2018 16:52 7,6 C 6,1 C 5,6 C 92 % 1030,6 hPa 0,0 l/m 0 min 0 min 0 W/m 9,7 km/h (2 Bft) 97,87 %
30.12.2018 16:54 7,5 C 6,1 C 5,6 C 92 % 1030,6 hPa 0,0 l/m 0 min 0 min 0 W/m 6,4 km/h (2 Bft) 97,87 %
30.12.2018 16:56 7,5 C 6,1 C 5,6 C 92 % 1030,6 hPa 0,0 l/m 0 min 0 min 0 W/m 9,7 km/h (2 Bft) 97,87 %
30.12.2018 16:58 7,5 C 6,1 C 5,6 C 92 % 1030,5 hPa 0,0 l/m 0 min 0 min 0 W/m 12,9 km/h (3 Bft) 97,87 %
30.12.2018 17:00 7,5 C 6,1 C 5,6 C 92 % 1030,5 hPa 0,0 l/m 0 min 0 min 0 W/m 9,7 km/h (2 Bft) 97,87 %
30.12.2018 17:02 7,5 C 6,1 C 5,6 C 92 % 1030,5 hPa 0,0 l/m 0 min 0 min 0 W/m 9,7 km/h (2 Bft) 97,87 %
30.12.2018 17:04 7,4 C 6,1 C 5,6 C 92 % 1030,4 hPa 0,0 l/m 0 min 0 min 0 W/m 9,7 km/h (2 Bft) 97,87 %
30.12.2018 17:06 7,4 C 6,1 C 5,6 C 92 % 1030,4 hPa 0,0 l/m 0 min 0 min 0 W/m 6,4 km/h (2 Bft) 97,87 %
30.12.2018 17:08 7,4 C 6,1 C 5,6 C 92 % 1030,3 hPa 0,0 l/m 0 min 0 min 0 W/m 9,7 km/h (2 Bft) 97,87 %
30.12.2018 17:10 7,4 C 6,1 C 5,6 C 93 % 1030,3 hPa 0,0 l/m 0 min 0 min 0 W/m 9,7 km/h (2 Bft) 97,87 %
30.12.2018 17:12 7,4 C 6,1 C 5,6 C 93 % 1030,4 hPa 0,0 l/m 0 min 0 min 0 W/m 16,1 km/h (3 Bft) 97,83 %
30.12.2018 17:14 7,4 C 6,1 C 5,6 C 93 % 1030,3 hPa 0,0 l/m 0 min 0 min 0 W/m 19,3 km/h (3 Bft) 95,74 %
30.12.2018 17:16 7,3 C 6,1 C 5,6 C 93 % 1030,4 hPa 0,0 l/m 0 min 0 min 0 W/m 12,9 km/h (3 Bft) 97,67 %
30.12.2018 17:18 7,3 C 6,1 C 5,6 C 93 % 1030,3 hPa 0,0 l/m 0 min 0 min 0 W/m 16,1 km/h (3 Bft) 97,87 %
30.12.2018 17:20 7,3 C 6,1 C 5,6 C 93 % 1030,3 hPa 0,0 l/m 0 min 0 min 0 W/m 9,7 km/h (2 Bft) 95,74 %
30.12.2018 17:22 7,3 C 6,1 C 5,6 C 93 % 1030,3 hPa 0,0 l/m 0 min 2 min 0 W/m 12,9 km/h (3 Bft) 100,00 %
30.12.2018 17:24 7,2 C 6,1 C 5,6 C 93 % 1030,3 hPa 0,0 l/m 0 min 0 min 0 W/m 9,7 km/h (2 Bft) 97,87 %
30.12.2018 17:26 7,2 C 6,1 C 5,6 C 94 % 1030,3 hPa 0,0 l/m 0 min 0 min 0 W/m 9,7 km/h (2 Bft) 100,00 %
30.12.2018 17:28 7,2 C 6,1 C 5,6 C 94 % 1030,3 hPa 0,0 l/m 0 min 0 min 0 W/m 12,9 km/h (3 Bft) 100,00 %
30.12.2018 17:30 7,2 C 6,1 C 5,6 C 94 % 1030,3 hPa 0,0 l/m 0 min 0 min 0 W/m 6,4 km/h (2 Bft) 100,00 %
30.12.2018 17:32 7,2 C 6,1 C 5,6 C 94 % 1030,3 hPa 0,0 l/m 0 min 0 min 0 W/m 9,7 km/h (2 Bft) 100,00 %
30.12.2018 17:34 7,2 C 6,1 C 5,6 C 94 % 1030,4 hPa 0,0 l/m 0 min 0 min 0 W/m 12,9 km/h (3 Bft) 93,62 %
30.12.2018 17:36 7,2 C 6,1 C 5,6 C 94 % 1030,5 hPa 0,0 l/m 0 min 0 min 0 W/m 19,3 km/h (3 Bft) 98,28 %
30.12.2018 17:38 7,2 C 6,1 C 5,6 C 94 % 1030,5 hPa 0,0 l/m 0 min 0 min 0 W/m 6,4 km/h (2 Bft) 97,14 %
30.12.2018 17:40 7,2 C 6,1 C 5,6 C 94 % 1030,5 hPa 0,0 l/m 0 min 0 min 0 W/m 12,9 km/h (3 Bft) 97,87 %
30.12.2018 17:42 7,1 C 6,1 C 5,6 C 94 % 1030,6 hPa 0,0 l/m 0 min 0 min 0 W/m 6,4 km/h (2 Bft) 100,00 %
30.12.2018 17:44 7,1 C 6,1 C 5,6 C 94 % 1030,5 hPa 0,0 l/m 0 min 0 min 0 W/m 6,4 km/h (2 Bft) 93,75 %
30.12.2018 17:46 7,1 C 6,1 C 5,6 C 95 % 1030,5 hPa 0,0 l/m 0 min 0 min 0 W/m 6,4 km/h (2 Bft) 97,83 %
30.12.2018 17:48 7,1 C 6,1 C 5,6 C 95 % 1030,5 hPa 0,0 l/m 0 min 0 min 0 W/m 6,4 km/h (2 Bft) 97,87 %
30.12.2018 17:50 7,1 C 6,1 C 5,6 C 95 % 1030,5 hPa 0,0 l/m 0 min 0 min 0 W/m 12,9 km/h (3 Bft) 100,00 %
30.12.2018 17:52 7,1 C 6,1 C 5,6 C 95 % 1030,5 hPa 0,0 l/m 0 min 0 min 0 W/m 6,4 km/h (2 Bft) 100,00 %
30.12.2018 17:54 7,1 C 6,1 C 5,6 C 95 % 1030,5 hPa 0,0 l/m 0 min 2 min 0 W/m 9,7 km/h (2 Bft) 95,74 %
30.12.2018 17:56 7,1 C 6,1 C 5,6 C 95 % 1030,5 hPa 0,0 l/m 0 min 0 min 0 W/m 12,9 km/h (3 Bft) 95,74 %
30.12.2018 17:58 7,1 C 6,1 C 5,6 C 95 % 1030,5 hPa 0,0 l/m 0 min 0 min 0 W/m 12,9 km/h (3 Bft) 97,83 %
30.12.2018 18:00 7,1 C 6,1 C 5,6 C 95 % 1030,5 hPa 0,0 l/m 0 min 0 min 0 W/m 9,7 km/h (2 Bft) 100,00 %
30.12.2018 18:02 7,1 C 6,1 C 5,6 C 95 % 1030,5 hPa 0,0 l/m 0 min 0 min 0 W/m 9,7 km/h (2 Bft) 93,62 %
30.12.2018 18:04 7,1 C 6,1 C 5,6 C 95 % 1030,5 hPa 0,0 l/m 0 min 0 min 0 W/m 12,9 km/h (3 Bft) 97,87 %
30.12.2018 18:08 7,1 C 6,1 C 5,6 C 95 % 1030,4 hPa 0,0 l/m 0 min 4 min 0 W/m 9,7 km/h (2 Bft) 96,81 %
30.12.2018 18:10 7,1 C 6,1 C 5,6 C 95 % 1030,4 hPa 0,0 l/m 0 min 2 min 0 W/m 9,7 km/h (2 Bft) 97,83 %
30.12.2018 18:12 7,1 C 6,1 C 5,6 C 95 % 1030,5 hPa 0,2 l/m 0 min 2 min 0 W/m 6,4 km/h (2 Bft) 97,67 %
30.12.2018 18:14 7,1 C 6,1 C 5,6 C 95 % 1030,5 hPa 0,0 l/m 0 min 2 min 0 W/m 9,7 km/h (2 Bft) 98,00 %
30.12.2018 18:16 7,1 C 6,1 C 5,6 C 95 % 1030,4 hPa 0,0 l/m 0 min 2 min 0 W/m 6,4 km/h (2 Bft) 97,87 %
30.12.2018 18:18 7,1 C 6,1 C 5,6 C 96 % 1030,3 hPa 0,0 l/m 0 min 2 min 0 W/m 9,7 km/h (2 Bft) 97,87 %
30.12.2018 18:20 7,1 C 6,1 C 5,6 C 96 % 1030,2 hPa 0,0 l/m 0 min 2 min 0 W/m 9,7 km/h (2 Bft) 93,62 %
30.12.2018 18:22 7,1 C 6,1 C 5,6 C 96 % 1030,2 hPa 0,0 l/m 0 min 2 min 0 W/m 9,7 km/h (2 Bft) 95,74 %
30.12.2018 18:24 7,1 C 6,1 C 5,6 C 96 % 1030,2 hPa 0,0 l/m 0 min 2 min 0 W/m 9,7 km/h (2 Bft) 95,65 %
30.12.2018 18:26 7,1 C 6,1 C 5,6 C 96 % 1030,2 hPa 0,0 l/m 0 min 2 min 0 W/m 9,7 km/h (2 Bft) 93,62 %
30.12.2018 18:28 7,1 C 6,1 C 5,6 C 96 % 1030,1 hPa 0,0 l/m 0 min 2 min 0 W/m 6,4 km/h (2 Bft) 95,74 %
30.12.2018 18:30 7,1 C 6,1 C 5,6 C 96 % 1030,1 hPa 0,0 l/m 0 min 2 min 0 W/m 3,2 km/h (1 Bft) 95,74 %
30.12.2018 18:32 7,1 C 6,1 C 5,6 C 96 % 1030,1 hPa 0,0 l/m 0 min 0 min 0 W/m 6,4 km/h (2 Bft) 95,83 %
30.12.2018 18:34 7,1 C 6,1 C 5,6 C 96 % 1030,2 hPa 0,2 l/m 0 min 0 min 0 W/m 6,4 km/h (2 Bft) 91,30 %
30.12.2018 18:36 7,1 C 6,1 C 5,6 C 96 % 1030,1 hPa 0,0 l/m 0 min 2 min 0 W/m 3,2 km/h (1 Bft) 95,74 %
30.12.2018 18:38 7,1 C 6,1 C 5,6 C 96 % 1030,1 hPa 0,0 l/m 0 min 2 min 0 W/m 9,7 km/h (2 Bft) 95,74 %
30.12.2018 18:40 7,1 C 6,1 C 5,6 C 96 % 1030,1 hPa 0,0 l/m 0 min 2 min 0 W/m 6,4 km/h (2 Bft) 95,74 %
30.12.2018 18:42 7,1 C 6,1 C 5,6 C 96 % 1030,2 hPa 0,0 l/m 0 min 0 min 0 W/m 6,4 km/h (2 Bft) 95,74 %
30.12.2018 18:44 7,1 C 6,1 C 5,6 C 96 % 1030,1 hPa 0,0 l/m 0 min 0 min 0 W/m 6,4 km/h (2 Bft) 95,74 %
30.12.2018 18:46 7,1 C 6,1 C 5,6 C 96 % 1030,0 hPa 0,0 l/m 0 min 0 min 0 W/m 3,2 km/h (1 Bft) 95,65 %
30.12.2018 18:48 7,1 C 6,1 C 5,6 C 96 % 1030,1 hPa 0,0 l/m 0 min 2 min 0 W/m 9,7 km/h (2 Bft) 97,87 %
30.12.2018 18:50 7,1 C 6,1 C 5,6 C 96 % 1030,0 hPa 0,0 l/m 0 min 2 min 0 W/m 6,4 km/h (2 Bft) 95,74 %
30.12.2018 18:52 7,1 C 6,1 C 5,6 C 96 % 1030,1 hPa 0,0 l/m 0 min 2 min 0 W/m 6,4 km/h (2 Bft) 97,87 %
30.12.2018 18:54 7,1 C 6,1 C 5,6 C 96 % 1030,1 hPa 0,2 l/m 0 min 2 min 0 W/m 12,9 km/h (3 Bft) 97,87 %
30.12.2018 18:56 7,1 C 6,1 C 5,6 C 96 % 1030,1 hPa 0,0 l/m 0 min 2 min 0 W/m 9,7 km/h (2 Bft) 95,65 %
30.12.2018 18:58 7,1 C 6,1 C 5,6 C 96 % 1030,1 hPa 0,0 l/m 0 min 2 min 0 W/m 12,9 km/h (3 Bft) 97,87 %
30.12.2018 19:00 7,1 C 6,1 C 5,6 C 96 % 1030,1 hPa 0,0 l/m 0 min 2 min 0 W/m 6,4 km/h (2 Bft) 97,87 %
30.12.2018 19:02 7,1 C 6,1 C 5,6 C 96 % 1030,0 hPa 0,0 l/m 0 min 2 min 0 W/m 6,4 km/h (2 Bft) 93,62 %
30.12.2018 19:04 7,1 C 6,1 C 5,6 C 96 % 1030,1 hPa 0,0 l/m 0 min 2 min 0 W/m 6,4 km/h (2 Bft) 100,00 %
30.12.2018 19:06 7,1 C 6,1 C 5,6 C 96 % 1030,1 hPa 0,0 l/m 0 min 2 min 0 W/m 6,4 km/h (2 Bft) 100,00 %
30.12.2018 19:08 7,1 C 6,1 C 5,6 C 97 % 1030,1 hPa 0,0 l/m 0 min 2 min 0 W/m 6,4 km/h (2 Bft) 97,22 %
30.12.2018 19:10 7,1 C 6,1 C 5,6 C 97 % 1030,1 hPa 0,0 l/m 0 min 2 min 0 W/m 9,7 km/h (2 Bft) 100,00 %
30.12.2018 19:12 7,1 C 6,1 C 5,6 C 97 % 1030,1 hPa 0,2 l/m 0 min 2 min 0 W/m 6,4 km/h (2 Bft) 100,00 %
30.12.2018 19:14 7,1 C 6,1 C 5,6 C 97 % 1030,1 hPa 0,0 l/m 0 min 2 min 0 W/m 12,9 km/h (3 Bft) 100,00 %
30.12.2018 19:16 7,1 C 6,1 C 5,6 C 97 % 1030,1 hPa 0,0 l/m 0 min 0 min 0 W/m 9,7 km/h (2 Bft) 100,00 %
30.12.2018 19:18 7,1 C 6,1 C 5,6 C 97 % 1030,1 hPa 0,0 l/m 0 min 2 min 0 W/m 12,9 km/h (3 Bft) 97,87 %
30.12.2018 19:20 7,2 C 6,1 C 5,6 C 97 % 1030,2 hPa 0,0 l/m 0 min 2 min 0 W/m 16,1 km/h (3 Bft) 100,00 %
30.12.2018 19:22 7,2 C 6,1 C 5,6 C 97 % 1030,2 hPa 0,0 l/m 0 min 0 min 0 W/m 6,4 km/h (2 Bft) 100,00 %
30.12.2018 19:24 7,2 C 6,1 C 5,6 C 97 % 1030,2 hPa 0,0 l/m 0 min 0 min 0 W/m 6,4 km/h (2 Bft) 97,87 %
30.12.2018 19:26 7,2 C 6,1 C 5,6 C 97 % 1030,2 hPa 0,0 l/m 0 min 0 min 0 W/m 6,4 km/h (2 Bft) 100,00 %
30.12.2018 19:28 7,2 C 6,1 C 6,1 C 97 % 1030,2 hPa 0,0 l/m 0 min 2 min 0 W/m 6,4 km/h (2 Bft) 100,00 %
30.12.2018 19:30 7,2 C 6,1 C 6,1 C 97 % 1030,2 hPa 0,0 l/m 0 min 0 min 0 W/m 6,4 km/h (2 Bft) 100,00 %
30.12.2018 19:32 7,2 C 6,7 C 6,1 C 97 % 1030,2 hPa 0,0 l/m 0 min 2 min 0 W/m 9,7 km/h (2 Bft) 97,83 %
30.12.2018 19:34 7,2 C 6,7 C 6,1 C 97 % 1030,3 hPa 0,0 l/m 0 min 2 min 0 W/m 6,4 km/h (2 Bft) 97,87 %
30.12.2018 19:36 7,2 C 6,7 C 6,1 C 97 % 1030,2 hPa 0,0 l/m 0 min 0 min 0 W/m 9,7 km/h (2 Bft) 100,00 %
30.12.2018 19:38 7,2 C 6,7 C 6,1 C 97 % 1030,3 hPa 0,2 l/m 0 min 0 min 0 W/m 9,7 km/h (2 Bft) 97,37 %
30.12.2018 19:40 7,2 C 6,7 C 6,1 C 97 % 1030,2 hPa 0,0 l/m 0 min 2 min 0 W/m 12,9 km/h (3 Bft) 100,00 %
30.12.2018 19:42 7,2 C 6,7 C 6,1 C 97 % 1030,1 hPa 0,0 l/m 0 min 2 min 0 W/m 6,4 km/h (2 Bft) 100,00 %
30.12.2018 19:44 7,2 C 6,7 C 6,1 C 97 % 1030,2 hPa 0,0 l/m 0 min 2 min 0 W/m 6,4 km/h (2 Bft) 100,00 %
30.12.2018 19:46 7,2 C 6,7 C 6,1 C 97 % 1030,1 hPa 0,0 l/m 0 min 2 min 0 W/m 6,4 km/h (2 Bft) 97,83 %
30.12.2018 19:48 7,2 C 6,7 C 6,1 C 97 % 1030,1 hPa 0,0 l/m 0 min 2 min 0 W/m 6,4 km/h (2 Bft) 96,00 %
30.12.2018 19:50 7,2 C 6,7 C 6,1 C 97 % 1030,1 hPa 0,0 l/m 0 min 2 min 0 W/m 9,7 km/h (2 Bft) 97,87 %
30.12.2018 19:52 7,2 C 6,7 C 6,1 C 97 % 1030,1 hPa 0,0 l/m 0 min 2 min 0 W/m 12,9 km/h (3 Bft) 95,74 %
30.12.2018 19:54 7,3 C 6,7 C 6,1 C 97 % 1030,0 hPa 0,0 l/m 0 min 0 min 0 W/m 6,4 km/h (2 Bft) 95,74 %
30.12.2018 19:56 7,3 C 6,7 C 6,1 C 97 % 1030,0 hPa 0,0 l/m 0 min 2 min 0 W/m 9,7 km/h (2 Bft) 97,83 %
30.12.2018 19:58 7,3 C 6,7 C 6,1 C 97 % 1030,1 hPa 0,0 l/m 0 min 2 min 0 W/m 6,4 km/h (2 Bft) 96,23 %
30.12.2018 20:00 7,3 C 6,7 C 6,1 C 97 % 1030,0 hPa 0,2 l/m 0 min 2 min 0 W/m 6,4 km/h (2 Bft) 97,14 %
30.12.2018 20:02 7,3 C 6,7 C 6,1 C 97 % 1029,9 hPa 0,0 l/m 0 min 2 min 0 W/m 9,7 km/h (2 Bft) 93,62 %
30.12.2018 20:04 7,3 C 6,7 C 6,1 C 97 % 1029,9 hPa 0,0 l/m 0 min 2 min 0 W/m 6,4 km/h (2 Bft) 98,31 %
30.12.2018 20:06 7,3 C 6,7 C 6,1 C 97 % 1029,8 hPa 0,2 l/m 0 min 2 min 0 W/m 9,7 km/h (2 Bft) 97,83 %
30.12.2018 20:08 7,3 C 6,7 C 6,1 C 97 % 1029,9 hPa 0,0 l/m 0 min 2 min 0 W/m 12,9 km/h (3 Bft) 97,87 %
30.12.2018 20:10 7,3 C 6,7 C 6,1 C 97 % 1029,9 hPa 0,0 l/m 0 min 2 min 0 W/m 9,7 km/h (2 Bft) 97,87 %
30.12.2018 20:12 7,3 C 6,7 C 6,1 C 97 % 1029,8 hPa 0,0 l/m 0 min 0 min 0 W/m 9,7 km/h (2 Bft) 97,87 %
30.12.2018 20:14 7,3 C 6,7 C 6,1 C 97 % 1030,0 hPa 0,0 l/m 0 min 0 min 0 W/m 6,4 km/h (2 Bft) 97,87 %
30.12.2018 20:16 7,4 C 6,7 C 6,1 C 97 % 1030,0 hPa 0,0 l/m 0 min 0 min 0 W/m 9,7 km/h (2 Bft) 97,87 %
30.12.2018 20:18 7,3 C 6,7 C 6,1 C 97 % 1030,0 hPa 0,0 l/m 0 min 0 min 0 W/m 12,9 km/h (3 Bft) 95,65 %
30.12.2018 20:20 7,4 C 6,7 C 6,1 C 98 % 1030,0 hPa 0,0 l/m 0 min 0 min 0 W/m 9,7 km/h (2 Bft) 95,74 %
30.12.2018 20:22 7,4 C 6,7 C 6,1 C 98 % 1030,0 hPa 0,0 l/m 0 min 0 min 0 W/m 9,7 km/h (2 Bft) 97,87 %
30.12.2018 20:24 7,4 C 6,7 C 6,1 C 98 % 1029,9 hPa 0,0 l/m 0 min 0 min 0 W/m 19,3 km/h (3 Bft) 97,87 %
30.12.2018 20:26 7,4 C 6,7 C 6,1 C 98 % 1029,7 hPa 0,0 l/m 0 min 0 min 0 W/m 9,7 km/h (2 Bft) 91,49 %
30.12.2018 20:28 7,4 C 6,7 C 6,1 C 98 % 1029,6 hPa 0,0 l/m 0 min 0 min 0 W/m 12,9 km/h (3 Bft) 97,14 %
30.12.2018 20:30 7,4 C 6,7 C 6,1 C 98 % 1029,7 hPa 0,0 l/m 0 min 0 min 0 W/m 19,3 km/h (3 Bft) 96,55 %
30.12.2018 20:32 7,4 C 6,7 C 6,1 C 98 % 1029,8 hPa 0,0 l/m 0 min 0 min 0 W/m 12,9 km/h (3 Bft) 95,74 %
30.12.2018 20:34 7,4 C 6,7 C 6,1 C 98 % 1029,9 hPa 0,0 l/m 0 min 0 min 0 W/m 6,4 km/h (2 Bft) 97,87 %
30.12.2018 20:36 7,4 C 6,7 C 6,1 C 98 % 1029,9 hPa 0,0 l/m 0 min 0 min 0 W/m 9,7 km/h (2 Bft) 97,87 %
30.12.2018 20:38 7,4 C 6,7 C 6,1 C 98 % 1029,8 hPa 0,0 l/m 0 min 0 min 0 W/m 9,7 km/h (2 Bft) 95,74 %
30.12.2018 20:40 7,4 C 6,7 C 6,1 C 98 % 1029,8 hPa 0,0 l/m 0 min 0 min 0 W/m 12,9 km/h (3 Bft) 97,87 %
30.12.2018 20:42 7,5 C 6,7 C 6,1 C 98 % 1029,9 hPa 0,0 l/m 0 min 0 min 0 W/m 12,9 km/h (3 Bft) 95,65 %
30.12.2018 20:44 7,5 C 6,7 C 6,1 C 98 % 1029,9 hPa 0,0 l/m 0 min 0 min 0 W/m 6,4 km/h (2 Bft) 97,87 %
30.12.2018 20:46 7,5 C 6,7 C 6,1 C 98 % 1030,0 hPa 0,0 l/m 0 min 0 min 0 W/m 9,7 km/h (2 Bft) 97,87 %
30.12.2018 20:48 7,5 C 6,7 C 6,1 C 98 % 1029,9 hPa 0,0 l/m 0 min 0 min 0 W/m 9,7 km/h (2 Bft) 95,74 %
30.12.2018 20:50 7,5 C 6,7 C 6,1 C 98 % 1029,9 hPa 0,0 l/m 0 min 0 min 0 W/m 19,3 km/h (3 Bft) 97,14 %
30.12.2018 20:52 7,5 C 6,7 C 6,1 C 98 % 1029,9 hPa 0,0 l/m 0 min 0 min 0 W/m 12,9 km/h (3 Bft) 94,83 %
30.12.2018 20:54 7,5 C 6,7 C 6,1 C 98 % 1029,9 hPa 0,0 l/m 0 min 0 min 0 W/m 6,4 km/h (2 Bft) 95,74 %
30.12.2018 20:56 7,5 C 6,7 C 6,1 C 98 % 1029,8 hPa 0,0 l/m 0 min 0 min 0 W/m 9,7 km/h (2 Bft) 95,74 %
30.12.2018 20:58 7,6 C 6,7 C 6,1 C 98 % 1029,9 hPa 0,0 l/m 0 min 0 min 0 W/m 12,9 km/h (3 Bft) 93,62 %
30.12.2018 21:00 7,6 C 6,7 C 6,1 C 98 % 1029,8 hPa 0,0 l/m 0 min 0 min 0 W/m 6,4 km/h (2 Bft) 93,62 %
30.12.2018 21:02 7,6 C 6,7 C 6,1 C 98 % 1029,9 hPa 0,0 l/m 0 min 0 min 0 W/m 9,7 km/h (2 Bft) 97,14 %
30.12.2018 21:04 7,6 C 6,7 C 6,1 C 98 % 1030,0 hPa 0,0 l/m 0 min 0 min 0 W/m 6,4 km/h (2 Bft) 94,00 %
30.12.2018 21:06 7,6 C 6,7 C 6,1 C 98 % 1030,0 hPa 0,0 l/m 0 min 0 min 0 W/m 6,4 km/h (2 Bft) 93,62 %
30.12.2018 21:08 7,6 C 6,7 C 6,1 C 98 % 1030,0 hPa 0,0 l/m 0 min 0 min 0 W/m 9,7 km/h (2 Bft) 95,65 %
30.12.2018 21:10 7,6 C 6,7 C 6,1 C 98 % 1030,0 hPa 0,0 l/m 0 min 0 min 0 W/m 9,7 km/h (2 Bft) 93,62 %
30.12.2018 21:12 7,6 C 6,7 C 6,1 C 98 % 1030,0 hPa 0,0 l/m 0 min 0 min 0 W/m 16,1 km/h (3 Bft) 96,00 %
30.12.2018 21:14 7,6 C 6,7 C 6,1 C 98 % 1030,0 hPa 0,0 l/m 0 min 0 min 0 W/m 12,9 km/h (3 Bft) 95,74 %
30.12.2018 21:16 7,6 C 6,7 C 6,1 C 98 % 1030,0 hPa 0,0 l/m 0 min 0 min 0 W/m 12,9 km/h (3 Bft) 95,65 %
30.12.2018 21:18 7,6 C 6,7 C 6,1 C 98 % 1030,0 hPa 0,0 l/m 0 min 0 min 0 W/m 6,4 km/h (2 Bft) 95,74 %
30.12.2018 21:20 7,6 C 6,7 C 6,1 C 98 % 1029,9 hPa 0,0 l/m 0 min 0 min 0 W/m 9,7 km/h (2 Bft) 91,49 %
30.12.2018 21:22 7,6 C 6,7 C 6,1 C 98 % 1029,8 hPa 0,0 l/m 0 min 0 min 0 W/m 9,7 km/h (2 Bft) 93,62 %
30.12.2018 21:24 7,6 C 6,7 C 6,1 C 98 % 1029,9 hPa 0,0 l/m 0 min 0 min 0 W/m 6,4 km/h (2 Bft) 95,74 %
30.12.2018 21:26 7,6 C 6,7 C 6,1 C 98 % 1029,9 hPa 0,0 l/m 0 min 0 min 0 W/m 9,7 km/h (2 Bft) 95,74 %
30.12.2018 21:28 7,6 C 6,7 C 6,7 C 98 % 1029,9 hPa 0,0 l/m 0 min 0 min 0 W/m 6,4 km/h (2 Bft) 95,65 %
30.12.2018 21:30 7,7 C 6,7 C 6,7 C 98 % 1029,8 hPa 0,0 l/m 0 min 0 min 0 W/m 9,7 km/h (2 Bft) 95,24 %
30.12.2018 21:32 7,7 C 6,7 C 6,1 C 98 % 1029,7 hPa 0,0 l/m 0 min 0 min 0 W/m 12,9 km/h (3 Bft) 96,00 %
30.12.2018 21:34 7,7 C 6,7 C 6,1 C 98 % 1029,7 hPa 0,0 l/m 0 min 0 min 0 W/m 6,4 km/h (2 Bft) 97,87 %
30.12.2018 21:36 7,7 C 7,2 C 6,7 C 98 % 1029,7 hPa 0,0 l/m 0 min 0 min 0 W/m 6,4 km/h (2 Bft) 97,87 %
30.12.2018 21:38 7,7 C 7,2 C 6,7 C 98 % 1029,7 hPa 0,0 l/m 0 min 0 min 0 W/m 9,7 km/h (2 Bft) 95,74 %
30.12.2018 21:40 7,7 C 7,2 C 6,7 C 98 % 1029,8 hPa 0,0 l/m 0 min 0 min 0 W/m 12,9 km/h (3 Bft) 97,87 %
30.12.2018 21:42 7,7 C 7,2 C 6,7 C 98 % 1029,7 hPa 0,0 l/m 0 min 0 min 0 W/m 12,9 km/h (3 Bft) 97,83 %
30.12.2018 21:44 7,7 C 7,2 C 6,7 C 98 % 1029,7 hPa 0,0 l/m 0 min 0 min 0 W/m 9,7 km/h (2 Bft) 100,00 %
30.12.2018 21:46 7,7 C 7,2 C 6,7 C 98 % 1029,7 hPa 0,0 l/m 0 min 0 min 0 W/m 6,4 km/h (2 Bft) 100,00 %
30.12.2018 21:48 7,7 C 7,2 C 6,7 C 98 % 1029,8 hPa 0,0 l/m 0 min 0 min 0 W/m 3,2 km/h (1 Bft) 97,87 %
30.12.2018 21:50 7,7 C 7,2 C 6,7 C 98 % 1029,7 hPa 0,0 l/m 0 min 0 min 0 W/m 3,2 km/h (1 Bft) 100,00 %
30.12.2018 21:52 7,7 C 7,2 C 6,7 C 98 % 1029,7 hPa 0,0 l/m 0 min 0 min 0 W/m 0,0 km/h (0 Bft) 100,00 %
30.12.2018 21:54 7,7 C 7,2 C 6,7 C 98 % 1029,8 hPa 0,0 l/m 0 min 0 min 0 W/m 0,0 km/h (0 Bft) 97,83 %
30.12.2018 21:56 7,7 C 7,2 C 6,7 C 98 % 1029,8 hPa 0,0 l/m 0 min 0 min 0 W/m 6,4 km/h (2 Bft) 100,00 %
30.12.2018 21:58 7,7 C 7,2 C 6,7 C 98 % 1029,7 hPa 0,0 l/m 0 min 0 min 0 W/m 9,7 km/h (2 Bft) 100,00 %
30.12.2018 22:00 7,7 C 7,2 C 6,7 C 98 % 1029,8 hPa 0,0 l/m 0 min 0 min 0 W/m 9,7 km/h (2 Bft) 100,00 %
30.12.2018 22:02 7,8 C 7,2 C 6,7 C 98 % 1029,7 hPa 0,0 l/m 0 min 0 min 0 W/m 12,9 km/h (3 Bft) 100,00 %
30.12.2018 22:04 7,8 C 7,2 C 6,7 C 98 % 1029,8 hPa 0,0 l/m 0 min 0 min 0 W/m 6,4 km/h (2 Bft) 97,87 %
30.12.2018 22:06 7,7 C 7,2 C 6,7 C 98 % 1029,8 hPa 0,0 l/m 0 min 0 min 0 W/m 6,4 km/h (2 Bft) 100,00 %
30.12.2018 22:08 7,8 C 7,2 C 6,7 C 98 % 1029,8 hPa 0,0 l/m 0 min 0 min 0 W/m 6,4 km/h (2 Bft) 100,00 %
30.12.2018 22:10 7,8 C 7,2 C 6,7 C 98 % 1029,8 hPa 0,0 l/m 0 min 0 min 0 W/m 3,2 km/h (1 Bft) 100,00 %
30.12.2018 22:12 7,8 C 7,2 C 6,7 C 98 % 1029,8 hPa 0,0 l/m 0 min 0 min 0 W/m 6,4 km/h (2 Bft) 100,00 %
30.12.2018 22:14 7,8 C 7,2 C 6,7 C 98 % 1029,7 hPa 0,0 l/m 0 min 0 min 0 W/m 6,4 km/h (2 Bft) 100,00 %
30.12.2018 22:16 7,8 C 7,2 C 6,7 C 98 % 1029,7 hPa 0,0 l/m 0 min 0 min 0 W/m 6,4 km/h (2 Bft) 97,87 %
30.12.2018 22:18 7,8 C 7,2 C 6,7 C 98 % 1029,8 hPa 0,0 l/m 0 min 0 min 0 W/m 6,4 km/h (2 Bft) 100,00 %
30.12.2018 22:20 7,8 C 7,2 C 6,7 C 98 % 1029,8 hPa 0,0 l/m 0 min 0 min 0 W/m 6,4 km/h (2 Bft) 97,87 %
30.12.2018 22:22 7,8 C 7,2 C 6,7 C 98 % 1029,8 hPa 0,0 l/m 0 min 0 min 0 W/m 6,4 km/h (2 Bft) 100,00 %
30.12.2018 22:24 7,8 C 7,2 C 6,7 C 98 % 1029,8 hPa 0,0 l/m 0 min 0 min 0 W/m 6,4 km/h (2 Bft) 97,87 %
30.12.2018 22:26 7,8 C 7,2 C 6,7 C 98 % 1029,8 hPa 0,0 l/m 0 min 0 min 0 W/m 6,4 km/h (2 Bft) 100,00 %
30.12.2018 22:28 7,8 C 7,2 C 6,7 C 98 % 1029,8 hPa 0,0 l/m 0 min 0 min 0 W/m 3,2 km/h (1 Bft) 100,00 %
30.12.2018 22:30 7,8 C 7,2 C 6,7 C 98 % 1029,8 hPa 0,0 l/m 0 min 2 min 0 W/m 9,7 km/h (2 Bft) 100,00 %
30.12.2018 22:32 7,8 C 7,2 C 6,7 C 98 % 1029,9 hPa 0,0 l/m 0 min 0 min 0 W/m 6,4 km/h (2 Bft) 100,00 %
30.12.2018 22:34 7,8 C 7,2 C 6,7 C 98 % 1029,8 hPa 0,0 l/m 0 min 0 min 0 W/m 6,4 km/h (2 Bft) 100,00 %
30.12.2018 22:36 7,8 C 7,2 C 6,7 C 98 % 1029,9 hPa 0,0 l/m 0 min 2 min 0 W/m 6,4 km/h (2 Bft) 100,00 %
30.12.2018 22:38 7,8 C 7,2 C 6,7 C 98 % 1029,8 hPa 0,0 l/m 0 min 0 min 0 W/m 9,7 km/h (2 Bft) 100,00 %
30.12.2018 22:40 7,8 C 7,2 C 6,7 C 98 % 1029,9 hPa 0,0 l/m 0 min 0 min 0 W/m 6,4 km/h (2 Bft) 100,00 %
30.12.2018 22:42 7,9 C 7,2 C 6,7 C 98 % 1029,9 hPa 0,0 l/m 0 min 2 min 0 W/m 9,7 km/h (2 Bft) 100,00 %
30.12.2018 22:44 7,9 C 7,2 C 6,7 C 98 % 1029,9 hPa 0,0 l/m 0 min 2 min 0 W/m 3,2 km/h (1 Bft) 100,00 %
30.12.2018 22:46 7,9 C 7,2 C 6,7 C 98 % 1029,9 hPa 0,0 l/m 0 min 2 min 0 W/m 6,4 km/h (2 Bft) 100,00 %
30.12.2018 22:48 7,9 C 7,2 C 6,7 C 98 % 1029,9 hPa 0,0 l/m 0 min 2 min 0 W/m 6,4 km/h (2 Bft) 100,00 %
30.12.2018 22:50 7,9 C 7,2 C 6,7 C 99 % 1029,9 hPa 0,0 l/m 0 min 2 min 0 W/m 9,7 km/h (2 Bft) 100,00 %
30.12.2018 22:52 7,9 C 7,2 C 6,7 C 99 % 1029,8 hPa 0,0 l/m 0 min 2 min 0 W/m 6,4 km/h (2 Bft) 100,00 %
30.12.2018 22:54 7,9 C 7,2 C 6,7 C 98 % 1029,9 hPa 0,0 l/m 0 min 0 min 0 W/m 3,2 km/h (1 Bft) 100,00 %
30.12.2018 22:56 7,9 C 7,2 C 6,7 C 98 % 1029,8 hPa 0,0 l/m 0 min 0 min 0 W/m 3,2 km/h (1 Bft) 100,00 %
30.12.2018 22:58 7,9 C 7,2 C 6,7 C 98 % 1029,8 hPa 0,0 l/m 0 min 0 min 0 W/m 6,4 km/h (2 Bft) 97,87 %
30.12.2018 23:00 7,9 C 7,2 C 6,7 C 98 % 1029,8 hPa 0,0 l/m 0 min 0 min 0 W/m 9,7 km/h (2 Bft) 97,87 %
30.12.2018 23:02 7,9 C 7,2 C 6,7 C 98 % 1029,8 hPa 0,0 l/m 0 min 0 min 0 W/m 6,4 km/h (2 Bft) 97,87 %
30.12.2018 23:04 7,9 C 7,2 C 6,7 C 98 % 1029,8 hPa 0,0 l/m 0 min 0 min 0 W/m 3,2 km/h (1 Bft) 97,87 %
30.12.2018 23:06 7,9 C 7,2 C 6,7 C 98 % 1029,8 hPa 0,0 l/m 0 min 0 min 0 W/m 3,2 km/h (1 Bft) 97,87 %
30.12.2018 23:08 7,9 C 7,2 C 6,7 C 98 % 1029,8 hPa 0,0 l/m 0 min 0 min 0 W/m 6,4 km/h (2 Bft) 97,87 %
30.12.2018 23:10 7,9 C 7,2 C 6,7 C 98 % 1029,8 hPa 0,0 l/m 0 min 0 min 0 W/m 6,4 km/h (2 Bft) 97,87 %
30.12.2018 23:12 7,9 C 7,2 C 6,7 C 98 % 1029,8 hPa 0,0 l/m 0 min 0 min 0 W/m 6,4 km/h (2 Bft) 95,74 %
30.12.2018 23:14 7,9 C 7,2 C 6,7 C 98 % 1029,8 hPa 0,0 l/m 0 min 0 min 0 W/m 16,1 km/h (3 Bft) 97,83 %
30.12.2018 23:16 7,9 C 7,2 C 6,7 C 99 % 1029,9 hPa 0,0 l/m 0 min 0 min 0 W/m 9,7 km/h (2 Bft) 97,67 %
30.12.2018 23:18 8,0 C 7,2 C 6,7 C 99 % 1030,0 hPa 0,0 l/m 0 min 0 min 0 W/m 9,7 km/h (2 Bft) 97,87 %
30.12.2018 23:20 8,0 C 7,2 C 6,7 C 99 % 1029,9 hPa 0,0 l/m 0 min 0 min 0 W/m 6,4 km/h (2 Bft) 97,87 %
30.12.2018 23:22 7,9 C 7,2 C 6,7 C 99 % 1030,0 hPa 0,0 l/m 0 min 0 min 0 W/m 6,4 km/h (2 Bft) 93,62 %
30.12.2018 23:24 8,0 C 7,2 C 6,7 C 99 % 1030,0 hPa 0,0 l/m 0 min 0 min 0 W/m 6,4 km/h (2 Bft) 95,74 %
30.12.2018 23:26 8,0 C 7,2 C 6,7 C 99 % 1030,0 hPa 0,0 l/m 0 min 0 min 0 W/m 3,2 km/h (1 Bft) 93,62 %
30.12.2018 23:28 8,0 C 7,2 C 6,7 C 99 % 1029,9 hPa 0,0 l/m 0 min 0 min 0 W/m 6,4 km/h (2 Bft) 91,30 %
30.12.2018 23:30 8,0 C 7,2 C 6,7 C 99 % 1030,0 hPa 0,0 l/m 0 min 0 min 0 W/m 3,2 km/h (1 Bft) 95,74 %
30.12.2018 23:32 8,0 C 7,2 C 6,7 C 99 % 1030,0 hPa 0,0 l/m 0 min 0 min 0 W/m 0,0 km/h (0 Bft) 94,00 %
30.12.2018 23:34 8,0 C 7,2 C 6,7 C 99 % 1030,0 hPa 0,0 l/m 0 min 0 min 0 W/m 0,0 km/h (0 Bft) 95,74 %
30.12.2018 23:36 8,0 C 7,2 C 6,7 C 99 % 1030,1 hPa 0,2 l/m 0 min 0 min 0 W/m 6,4 km/h (2 Bft) 91,49 %
30.12.2018 23:38 8,0 C 7,2 C 6,7 C 99 % 1030,1 hPa 0,0 l/m 0 min 0 min 0 W/m 16,1 km/h (3 Bft) 93,62 %
30.12.2018 23:40 8,1 C 7,2 C 6,7 C 99 % 1030,0 hPa 0,0 l/m 0 min 0 min 0 W/m 19,3 km/h (3 Bft) 95,65 %
30.12.2018 23:42 8,1 C 7,2 C 6,7 C 99 % 1030,1 hPa 0,0 l/m 0 min 0 min 0 W/m 6,4 km/h (2 Bft) 93,62 %
30.12.2018 23:44 8,1 C 7,2 C 6,7 C 99 % 1030,1 hPa 0,0 l/m 0 min 0 min 0 W/m 9,7 km/h (2 Bft) 93,62 %
30.12.2018 23:46 8,1 C 7,2 C 6,7 C 99 % 1030,1 hPa 0,0 l/m 0 min 0 min 0 W/m 6,4 km/h (2 Bft) 91,49 %
30.12.2018 23:48 8,1 C 7,2 C 6,7 C 99 % 1030,0 hPa 0,0 l/m 0 min 0 min 0 W/m 6,4 km/h (2 Bft) 93,62 %
30.12.2018 23:50 8,1 C 7,2 C 6,7 C 99 % 1030,1 hPa 0,0 l/m 0 min 0 min 0 W/m 6,4 km/h (2 Bft) 91,49 %
30.12.2018 23:52 8,1 C 7,2 C 6,7 C 99 % 1030,0 hPa 0,0 l/m 0 min 0 min 0 W/m 9,7 km/h (2 Bft) 95,74 %
30.12.2018 23:54 8,1 C 7,2 C 6,7 C 99 % 1030,0 hPa 0,0 l/m 0 min 0 min 0 W/m 9,7 km/h (2 Bft) 93,62 %
30.12.2018 23:56 8,1 C 7,2 C 6,7 C 99 % 1030,0 hPa 0,0 l/m 0 min 0 min 0 W/m 6,4 km/h (2 Bft) 93,62 %
30.12.2018 23:58 8,1 C 7,2 C 6,7 C 99 % 1030,0 hPa 0,0 l/m 0 min 0 min 0 W/m 6,4 km/h (2 Bft) 95,74 %
_ Min-Zeit 07:32 06:46 07:36 00:10 00:00 - - - - 09:06 13:52
Minimum _ 6,2 C 5,6 C 4,4 C 86 % 1026,4 hPa - - - - 0,0 km/h (0 Bft) 68,09 %
_ Max-Zeit 13:50 10:16 11:20 22:50 11:14 18:12 09:54 18:08 12:00 01:32 00:00
Maximum _ 8,1 C 9,4 C 7,2 C 99 % 1031,9 hPa 0,2 l/m 2 min 4 min 170 W/m 38,6 km/h
N (5 Bft)
100,00 %
Durchschnitt _ 7,4 C 6,9 C 6,2 C 92 % 1030,0 hPa #1,6 l/m #38 min. #2:02 h 63 W/m 10,4 km/h (2 Bft) 95,15 %
© 2018 W. Hausmann